KB0UOA Weather Reports


Display with metric or nautical units.
time (UTC)temp
F
wind
direction
speed
MPH
gust
MPH
rain 1hr
in
rain 24hr
in
rain mn
in
humidity
%
barometer
mb
20260510180304 65 66 4.0 11.0 0.00 0.19 0.16 39 1022.5
20260510180204 65 67 4.0 11.0 0.00 0.19 0.16 38 1022.5
20260510180105 65 63 4.0 11.0 0.00 0.19 0.16 38 1022.5
20260510175904 64 64 5.0 11.0 0.00 0.19 0.16 40 1022.5
20260510175804 64 65 5.0 17.0 0.00 0.19 0.16 38 1022.6
20260510175704 64 67 5.0 17.0 0.00 0.19 0.16 40 1022.5
20260510175504 64 73 4.0 17.0 0.00 0.19 0.16 39 1022.6
20260510175405 64 74 4.0 17.0 0.00 0.19 0.16 40 1022.6
20260510175306 64 77 5.0 17.0 0.00 0.19 0.16 40 1022.6
20260510175205 64 76 5.0 17.0 0.00 0.19 0.16 40 1022.6
20260510174904 64 78 4.0 17.0 0.00 0.19 0.16 38 1022.6
20260510174804 64 79 4.0 14.0 0.00 0.19 0.16 40 1022.6
20260510174704 64 80 4.0 14.0 0.00 0.19 0.16 42 1022.6
20260510174604 64 76 4.0 14.0 0.00 0.19 0.16 41 1022.6
20260510174504 64 72 4.0 14.0 0.00 0.19 0.16 40 1022.6
20260510174404 64 70 4.0 14.0 0.00 0.19 0.16 39 1022.6
20260510174304 64 68 4.0 14.0 0.00 0.19 0.16 41 1022.6
20260510174204 64 63 3.0 14.0 0.00 0.19 0.16 39 1022.7
20260510174104 64 61 3.0 9.0 0.00 0.19 0.16 41 1022.7
20260510174004 64 64 3.0 9.0 0.00 0.19 0.16 42 1022.6
20260510173904 64 62 3.0 9.0 0.00 0.19 0.16 41 1022.7
20260510173804 64 59 3.0 9.0 0.00 0.19 0.16 41 1022.6
20260510173704 64 57 3.0 9.0 0.00 0.19 0.16 41 1022.6
20260510173604 64 66 3.0 12.0 0.00 0.19 0.16 41 1022.6
20260510173504 64 71 3.0 12.0 0.00 0.19 0.16 41 1022.6
20260510173404 64 75 3.0 12.0 0.00 0.19 0.16 41 1022.6
20260510173304 64 76 3.0 12.0 0.00 0.19 0.16 43 1022.6
20260510173104 63 75 3.0 12.0 0.00 0.19 0.16 44 1022.6
20260510173004 63 72 3.0 12.0 0.00 0.19 0.16 42 1022.5
20260510172904 63 70 4.0 12.0 0.00 0.19 0.16 42 1022.5
20260510172804 63 74 4.0 14.0 0.00 0.19 0.16 41 1022.5
20260510172704 63 74 4.0 14.0 0.00 0.19 0.16 43 1022.5
20260510172604 63 71 3.0 14.0 0.00 0.19 0.16 41 1022.5
20260510172504 64 70 3.0 14.0 0.00 0.19 0.16 41 1022.5
20260510172404 64 68 3.0 14.0 0.00 0.19 0.16 41 1022.4
20260510172306 64 64 3.0 14.0 0.00 0.19 0.16 40 1022.5
20260510172104 64 70 3.0 14.0 0.00 0.19 0.16 41 1022.4
20260510171904 64 78 2.0 14.0 0.00 0.19 0.16 41 1022.4
20260510171704 64 68 2.0 8.0 0.00 0.19 0.16 43 1022.5
20260510171604 64 75 2.0 8.0 0.00 0.19 0.16 45 1022.5
20260510171404 63 65 2.0 10.0 0.00 0.19 0.16 43 1022.6
20260510171304 63 64 3.0 10.0 0.00 0.19 0.16 45 1022.6
20260510171204 63 64 3.0 10.0 0.00 0.19 0.16 45 1022.6
20260510171104 63 64 3.0 10.0 0.00 0.19 0.16 43 1022.6
20260510171004 63 62 3.0 10.0 0.00 0.19 0.16 44 1022.6
20260510170804 62 65 4.0 10.0 0.00 0.19 0.16 44 1022.6
20260510170704 62 65 4.0 10.0 0.00 0.19 0.16 43 1022.5
20260510170604 62 62 3.0 10.0 0.00 0.19 0.16 44 1022.6
20260510170404 62 65 3.0 9.0 0.00 0.19 0.16 44 1022.5
20260510170304 62 63 3.0 8.0 0.00 0.19 0.16 45 1022.5
20260510170204 62 64 3.0 9.0 0.00 0.19 0.16 44 1022.5
20260510170004 62 65 3.0 10.0 0.00 0.19 0.16 44 1022.7
20260510165904 62 65 3.0 10.0 0.00 0.19 0.16 44 1022.7
20260510165704 62 65 3.0 10.0 0.00 0.19 0.16 49 1022.8
20260510165604 61 65 3.0 10.0 0.00 0.19 0.16 50 1022.8
20260510165306 61 74 3.0 10.0 0.00 0.19 0.16 47 1022.7
20260510165204 61 76 3.0 10.0 0.00 0.19 0.16 49 1022.8
20260510165004 60 79 3.0 10.0 0.00 0.19 0.16 48 1022.7
20260510164904 60 77 3.0 10.0 0.00 0.19 0.16 48 1022.7
20260510164704 60 69 3.0 10.0 0.00 0.19 0.16 48 1022.6
20260510164604 60 76 3.0 11.0 0.00 0.19 0.16 50 1022.7
20260510164504 60 72 3.0 11.0 0.00 0.19 0.16 50 1022.7
20260510164404 60 69 3.0 11.0 0.00 0.19 0.16 50 1022.6
20260510164304 60 65 3.0 11.0 0.00 0.19 0.16 50 1022.6
20260510164004 60 49 3.0 11.0 0.00 0.19 0.16 51 1022.6
20260510163904 60 51 3.0 11.0 0.00 0.19 0.16 51 1022.6
20260510163805 60 49 3.0 11.0 0.00 0.19 0.16 52 1022.6
20260510163705 60 45 3.0 12.0 0.00 0.19 0.16 51 1022.6
20260510163605 59 27 3.0 12.0 0.00 0.19 0.16 52 1022.6
20260510163505 59 26 3.0 12.0 0.00 0.19 0.16 54 1022.6
20260510163405 59 26 3.0 12.0 0.00 0.19 0.16 53 1022.6
20260510163305 59 23 3.0 12.0 0.00 0.19 0.16 55 1022.7
20260510163204 59 22 4.0 12.0 0.00 0.19 0.16 55 1022.7
20260510163105 59 20 4.0 12.0 0.00 0.19 0.16 55 1022.8
20260510162905 58 18 3.0 12.0 0.00 0.19 0.16 53 1022.9
20260510162805 58 17 3.0 12.0 0.00 0.19 0.16 53 1022.9
20260510162604 58 25 2.0 8.0 0.00 0.19 0.16 57 1022.8
20260510162505 58 27 2.0 8.0 0.00 0.19 0.16 56 1022.9
20260510162405 58 26 2.0 8.0 0.00 0.19 0.16 56 1022.8
20260510162204 58 34 2.0 7.0 0.00 0.19 0.16 57 1022.8
20260510162104 58 36 2.0 7.0 0.00 0.19 0.16 59 1022.8
20260510161904 58 29 2.0 9.0 0.00 0.19 0.16 59 1022.8
20260510161804 57 30 3.0 9.0 0.00 0.19 0.16 58 1022.8
20260510161704 57 32 3.0 9.0 0.00 0.19 0.16 59 1022.8
20260510161605 57 31 3.0 9.0 0.00 0.19 0.16 59 1022.8
20260510161504 57 37 3.0 9.0 0.00 0.19 0.16 58 1022.8
20260510161404 57 41 3.0 9.0 0.00 0.19 0.16 60 1022.8
20260510161304 57 43 3.0 9.0 0.00 0.19 0.16 58 1022.8
20260510161204 57 49 3.0 9.0 0.00 0.19 0.16 58 1022.8
20260510161104 57 56 3.0 9.0 0.00 0.19 0.16 56 1022.7
20260510160804 56 76 2.0 7.0 0.00 0.19 0.16 60 1022.6
20260510160504 56 71 2.0 7.0 0.00 0.19 0.16 60 1022.6
20260510160404 56 67 2.0 6.0 0.00 0.19 0.16 61 1022.5
20260510160205 56 40 2.0 6.0 0.00 0.19 0.16 62 1022.6
20260510160105 56 33 2.0 6.0 0.00 0.19 0.16 64 1022.7
20260510160005 56 31 2.0 6.0 0.00 0.19 0.16 63 1022.6
20260510155905 56 31 2.0 6.0 0.00 0.19 0.16 62 1022.7
20260510155805 56 29 2.0 6.0 0.00 0.19 0.16 65 1022.7
20260510155704 56 30 2.0 5.0 0.00 0.19 0.16 63 1022.8
20260510155605 56 29 2.0 5.0 0.00 0.19 0.16 63 1022.7
20260510155405 56 33 2.0 5.0 0.00 0.19 0.16 64 1022.7
20260510155306 55 47 2.0 5.0 0.00 0.19 0.16 64 1022.6
20260510155204 55 53 2.0 6.0 0.00 0.19 0.16 65 1022.4
20260510155105 55 50 2.0 9.0 0.00 0.19 0.16 66 1022.4
20260510155004 55 52 3.0 11.0 0.00 0.19 0.16 66 1022.4
20260510154804 55 45 3.0 11.0 0.00 0.19 0.16 68 1022.3
20260510154705 55 45 3.0 11.0 0.00 0.19 0.16 67 1022.3
20260510154605 55 40 3.0 11.0 0.00 0.19 0.16 68 1022.4
20260510154505 55 32 3.0 11.0 0.00 0.19 0.16 68 1022.4
20260510154405 55 28 3.0 11.0 0.00 0.19 0.16 67 1022.4
20260510154305 55 18 3.0 11.0 0.00 0.19 0.16 67 1022.4
20260510154205 55 9 3.0 11.0 0.00 0.19 0.16 68 1022.5
20260510154105 55 356 3.0 11.0 0.00 0.19 0.16 70 1022.5
20260510154005 55 343 3.0 7.0 0.00 0.19 0.16 71 1022.5
20260510153905 55 337 3.0 7.0 0.00 0.19 0.16 71 1022.6
20260510153805 55 338 3.0 7.0 0.00 0.19 0.16 72 1022.6
20260510153705 55 334 3.0 7.0 0.00 0.19 0.16 72 1022.6
20260510153604 55 336 3.0 7.0 0.01 0.19 0.16 73 1022.6
20260510153505 55 340 3.0 7.0 0.01 0.19 0.16 73 1022.6
20260510153405 55 343 3.0 7.0 0.01 0.19 0.16 72 1022.6
20260510153305 55 344 3.0 7.0 0.01 0.19 0.16 72 1022.5
20260510153205 55 359 3.0 7.0 0.01 0.19 0.16 72 1022.4
20260510153104 55 21 2.0 7.0 0.01 0.19 0.16 72 1022.2
20260510153005 55 52 2.0 6.0 0.01 0.19 0.16 73 1022.0
20260510152805 55 78 2.0 7.0 0.01 0.19 0.16 73 1021.7
20260510152605 54 88 2.0 7.0 0.01 0.19 0.16 73 1021.5
20260510152404 54 88 2.0 7.0 0.01 0.19 0.16 73 1021.5
20260510152307 54 88 2.0 7.0 0.01 0.19 0.16 72 1021.6
20260510152104 54 80 2.0 7.0 0.01 0.19 0.16 72 1021.7
20260510151904 54 73 2.0 6.0 0.01 0.19 0.16 72 1021.9
20260510151804 54 70 2.0 7.0 0.01 0.19 0.16 74 1021.9
20260510151405 54 73 2.0 9.0 0.01 0.19 0.16 75 1022.1
20260510151305 54 73 2.0 9.0 0.01 0.19 0.16 74 1022.1
20260510151205 54 74 2.0 9.0 0.01 0.19 0.16 74 1022.2
20260510151105 54 77 2.0 9.0 0.01 0.19 0.16 73 1022.1
20260510151005 54 78 2.0 9.0 0.01 0.19 0.16 73 1022.1
20260510150905 54 79 2.0 9.0 0.01 0.19 0.16 74 1022.2
20260510150805 54 79 1.0 9.0 0.01 0.19 0.16 74 1022.1
20260510150705 54 79 1.0 9.0 0.01 0.19 0.16 74 1022.2
20260510150604 54 74 1.0 5.0 0.01 0.19 0.16 77 1022.2
20260510150504 54 64 1.0 5.0 0.01 0.19 0.16 77 1022.3
20260510150404 54 52 2.0 7.0 0.01 0.19 0.16 77 1022.2
20260510150304 54 38 2.0 7.0 0.01 0.19 0.16 78 1022.2
20260510150105 54 36 2.0 7.0 0.01 0.19 0.16 78 1022.3
20260510145905 54 38 2.0 7.0 0.01 0.19 0.16 77 1022.4
20260510145705 54 36 2.0 7.0 0.01 0.19 0.16 77 1022.5
20260510145605 54 32 2.0 7.0 0.01 0.19 0.16 77 1022.5
20260510145505 54 26 2.0 7.0 0.01 0.19 0.16 77 1022.5
20260510145404 54 23 2.0 6.0 0.01 0.19 0.16 77 1022.4
20260510145306 54 28 1.0 4.0 0.01 0.19 0.16 77 1022.4
20260510145204 54 31 1.0 4.0 0.01 0.19 0.16 78 1022.2
20260510145104 54 31 1.0 4.0 0.01 0.19 0.16 78 1022.2
20260510145004 54 28 1.0 4.0 0.01 0.19 0.16 78 1022.3
20260510144904 54 24 1.0 4.0 0.01 0.19 0.16 79 1022.3
20260510144804 54 19 1.0 5.0 0.01 0.19 0.16 78 1022.3
20260510144704 54 18 1.0 5.0 0.01 0.19 0.16 78 1022.4
20260510144604 54 14 1.0 5.0 0.01 0.19 0.16 78 1022.3
20260510144404 54 40 1.0 5.0 0.01 0.19 0.16 78 1022.4
20260510144305 54 42 1.0 5.0 0.01 0.19 0.16 77 1022.4
20260510144204 54 43 1.0 5.0 0.01 0.19 0.16 77 1022.4
20260510144104 54 44 1.0 5.0 0.01 0.19 0.16 77 1022.4
20260510144004 54 48 1.0 5.0 0.01 0.19 0.16 77 1022.4
20260510143904 54 52 1.0 5.0 0.01 0.19 0.16 77 1022.5
20260510143804 54 69 1.0 5.0 0.01 0.19 0.16 78 1022.4
20260510143705 54 78 1.0 6.0 0.00 0.18 0.15 77 1022.3
20260510143604 54 85 1.0 6.0 0.00 0.18 0.15 77 1022.3
20260510143505 54 84 1.0 6.0 0.00 0.18 0.15 77 1022.3
20260510143404 54 86 1.0 6.0 0.00 0.18 0.15 78 1022.2
20260510143305 54 86 1.0 6.0 0.00 0.18 0.15 77 1022.1
20260510143205 54 87 2.0 6.0 0.00 0.18 0.15 77 1022.2
20260510143105 54 86 2.0 6.0 0.00 0.18 0.15 77 1022.2
20260510142905 54 84 1.0 6.0 0.00 0.18 0.15 76 1022.3
20260510142805 54 84 1.0 6.0 0.00 0.18 0.15 77 1022.4
20260510142705 54 84 1.0 5.0 0.01 0.18 0.15 77 1022.4
20260510142605 54 84 1.0 5.0 0.01 0.18 0.15 77 1022.5
20260510142505 54 84 1.0 5.0 0.01 0.18 0.15 76 1022.5
20260510142306 54 80 1.0 5.0 0.01 0.18 0.15 77 1022.6
20260510142205 54 75 1.0 3.0 0.02 0.18 0.15 77 1022.6
20260510142105 54 77 1.0 3.0 0.02 0.18 0.15 77 1022.7
20260510142005 54 74 1.0 4.0 0.02 0.18 0.15 77 1022.7
20260510141905 54 76 1.0 4.0 0.03 0.18 0.15 77 1022.8
20260510141805 54 76 1.0 4.0 0.03 0.18 0.15 77 1022.8
20260510141705 54 76 1.0 5.0 0.03 0.18 0.15 77 1022.8
20260510141605 54 79 1.0 6.0 0.03 0.18 0.15 77 1022.9
20260510141505 54 80 1.0 6.0 0.04 0.18 0.15 77 1022.8
20260510141405 54 81 1.0 6.0 0.04 0.18 0.15 77 1022.8
20260510141305 54 81 1.0 6.0 0.04 0.18 0.15 77 1022.8
20260510141205 54 82 1.0 6.0 0.05 0.18 0.15 77 1022.8
20260510141005 54 86 1.0 6.0 0.05 0.18 0.15 77 1022.8
20260510140804 54 84 1.0 6.0 0.06 0.18 0.15 77 1022.8
20260510140704 54 82 1.0 6.0 0.06 0.18 0.15 77 1022.9
20260510140604 54 81 1.0 7.0 0.07 0.18 0.15 78 1022.9
20260510140504 54 80 1.0 9.0 0.07 0.18 0.15 77 1022.9
20260510140404 54 79 2.0 9.0 0.08 0.18 0.15 77 1022.9
20260510140304 54 76 2.0 9.0 0.08 0.18 0.15 77 1022.9
20260510140104 54 62 2.0 9.0 0.10 0.18 0.15 78 1022.8
20260510140004 54 59 2.0 9.0 0.10 0.18 0.15 77 1022.8
20260510135904 54 56 2.0 9.0 0.11 0.18 0.15 78 1022.7
20260510135804 54 55 2.0 9.0 0.11 0.18 0.15 77 1022.7
20260510135604 54 53 2.0 9.0 0.12 0.18 0.15 78 1022.7
20260510135404 54 47 2.0 6.0 0.12 0.18 0.15 79 1022.7
20260510135306 54 46 1.0 6.0 0.12 0.18 0.15 79 1022.6
20260510135205 54 46 1.0 6.0 0.12 0.18 0.15 80 1022.6
20260510135105 54 59 1.0 6.0 0.12 0.18 0.15 80 1022.6
20260510135005 54 65 1.0 6.0 0.13 0.18 0.15 80 1022.5
20260510134905 54 71 1.0 6.0 0.13 0.18 0.15 81 1022.5
20260510134805 54 73 1.0 6.0 0.13 0.18 0.15 81 1022.4
20260510134705 54 76 1.0 6.0 0.13 0.18 0.15 81 1022.4
20260510134605 54 72 1.0 6.0 0.13 0.18 0.15 81 1022.4
20260510134505 54 70 1.0 6.0 0.13 0.18 0.15 82 1022.4
20260510134405 54 81 1.0 3.0 0.14 0.18 0.15 82 1022.5
20260510134204 54 80 0.0 3.0 0.14 0.18 0.15 82 1022.5
20260510134105 54 75 1.0 3.0 0.14 0.18 0.15 83 1022.5
20260510133904 54 72 1.0 3.0 0.15 0.18 0.15 82 1022.5
20260510133805 54 71 1.0 4.0 0.15 0.18 0.15 82 1022.6
20260510133705 54 71 1.0 4.0 0.15 0.18 0.15 82 1022.6
20260510133605 54 81 1.0 4.0 0.15 0.18 0.15 82 1022.5
20260510133505 54 80 1.0 4.0 0.15 0.18 0.15 82 1022.5
20260510133405 54 75 1.0 4.0 0.15 0.18 0.15 82 1022.5
20260510133205 54 75 1.0 4.0 0.15 0.18 0.15 81 1022.5
20260510133104 54 75 1.0 4.0 0.15 0.18 0.15 82 1022.5
20260510133004 54 72 1.0 4.0 0.15 0.18 0.15 81 1022.5
20260510132905 54 71 0.0 4.0 0.15 0.18 0.15 82 1022.5
20260510132705 54 76 0.0 4.0 0.14 0.17 0.14 82 1022.5
20260510132605 54 67 0.0 3.0 0.14 0.17 0.14 83 1022.5
20260510132505 54 72 0.0 3.0 0.14 0.17 0.14 82 1022.5
20260510132405 54 81 0.0 3.0 0.14 0.17 0.14 83 1022.5
20260510132306 54 83 0.0 2.0 0.13 0.16 0.13 83 1022.5
20260510132105 54 90 0.0 2.0 0.13 0.16 0.13 83 1022.5
20260510132005 54 94 0.0 2.0 0.12 0.15 0.12 82 1022.5
20260510131804 54 93 0.0 2.0 0.12 0.15 0.12 82 1022.6
20260510131704 54 89 0.0 2.0 0.12 0.15 0.12 82 1022.5
20260510131604 54 84 0.0 2.0 0.11 0.14 0.11 81 1022.6
20260510131504 54 82 0.0 2.0 0.11 0.14 0.11 81 1022.5
20260510131404 54 65 1.0 4.0 0.11 0.14 0.11 81 1022.6
20260510131305 54 52 1.0 4.0 0.11 0.14 0.11 80 1022.5
20260510131205 54 38 1.0 4.0 0.10 0.13 0.10 80 1022.5
20260510131105 55 32 1.0 4.0 0.10 0.13 0.10 80 1022.5
20260510131005 55 25 1.0 4.0 0.10 0.13 0.10 80 1022.5
20260510130905 55 18 1.0 4.0 0.09 0.12 0.09 79 1022.6
20260510130705 55 13 1.0 4.0 0.09 0.12 0.09 79 1022.7
20260510130505 55 11 1.0 4.0 0.08 0.11 0.08 77 1022.8
20260510130405 56 12 1.0 4.0 0.07 0.10 0.07 77 1022.8
20260510130305 56 11 1.0 4.0 0.07 0.10 0.07 76 1022.8
20260510130105 56 5 0.0 4.0 0.05 0.08 0.05 75 1022.7
20260510130004 56 13 0.0 2.0 0.05 0.08 0.05 75 1022.6
20260510125904 56 56 0.0 3.0 0.04 0.07 0.04 74 1022.5
20260510125804 56 85 0.0 3.0 0.04 0.07 0.04 73 1022.4
20260510125704 56 85 0.0 3.0 0.04 0.07 0.04 73 1022.3
20260510125604 57 85 0.0 3.0 0.03 0.06 0.03 73 1022.3
20260510125504 57 85 0.0 3.0 0.03 0.06 0.03 73 1022.2
20260510125405 57 85 0.0 3.0 0.03 0.06 0.03 73 1022.2
20260510125307 57 87 0.0 3.0 0.03 0.06 0.03 72 1022.2
20260510125205 57 87 1.0 4.0 0.03 0.06 0.03 70 1022.1
20260510125105 57 83 1.0 4.0 0.02 0.05 0.02 69 1022.1
20260510125005 57 83 1.0 4.0 0.02 0.05 0.02 69 1022.0
20260510124905 58 83 1.0 4.0 0.02 0.05 0.02 69 1021.9
20260510124805 58 80 1.0 4.0 0.02 0.05 0.02 69 1021.9
20260510124705 58 73 1.0 4.0 0.02 0.05 0.02 69 1021.9
20260510124605 58 72 1.0 4.0 0.02 0.05 0.02 67 1022.0
20260510124405 58 67 1.0 5.0 0.01 0.04 0.01 65 1022.0
20260510124304 58 60 1.0 5.0 0.01 0.04 0.01 64 1021.9
20260510124205 58 55 1.0 5.0 0.01 0.04 0.01 64 1021.9
20260510124105 59 43 1.0 6.0 0.01 0.04 0.01 65 1021.9
20260510123905 59 41 2.0 6.0 0.00 0.03 0.00 63 1021.8
20260510123805 59 44 2.0 6.0 0.00 0.03 0.00 63 1021.9
20260510123705 59 50 2.0 6.0 0.00 0.03 0.00 62 1021.8
20260510123605 59 52 2.0 6.0 0.00 0.03 0.00 62 1021.8
20260510123404 59 59 2.0 6.0 0.00 0.03 0.00 61 1021.7
20260510123304 59 68 2.0 8.0 0.00 0.03 0.00 62 1021.6
20260510123205 59 73 2.0 8.0 0.00 0.03 0.00 62 1021.5
20260510123104 59 86 2.0 8.0 0.00 0.03 0.00 62 1021.4
20260510122904 59 90 2.0 8.0 0.00 0.03 0.00 61 1021.1
20260510122804 59 90 2.0 8.0 0.00 0.03 0.00 61 1021.0
20260510122704 59 93 2.0 8.0 0.00 0.03 0.00 62 1020.9
20260510122604 59 90 3.0 8.0 0.00 0.03 0.00 61 1020.9
20260510122504 59 86 3.0 9.0 0.00 0.03 0.00 61 1020.8
20260510122404 59 84 3.0 9.0 0.00 0.03 0.00 60 1020.7
20260510122306 59 82 3.0 9.0 0.00 0.03 0.00 60 1020.7
20260510122204 60 83 3.0 9.0 0.00 0.03 0.00 60 1020.7
20260510122004 60 77 3.0 9.0 0.00 0.03 0.00 59 1020.6
20260510121905 60 74 2.0 9.0 0.00 0.03 0.00 59 1020.6
20260510121805 60 72 2.0 9.0 0.00 0.03 0.00 59 1020.6
20260510121704 60 71 2.0 9.0 0.00 0.03 0.00 59 1020.5
20260510121604 60 73 2.0 9.0 0.00 0.03 0.00 59 1020.5
20260510121405 60 77 1.0 5.0 0.00 0.03 0.00 60 1020.4
20260510121304 59 79 1.0 5.0 0.00 0.03 0.00 60 1020.4
20260510121205 60 77 1.0 5.0 0.00 0.03 0.00 60 1020.4
20260510121105 59 68 1.0 6.0 0.00 0.03 0.00 60 1020.3
20260510121005 59 69 1.0 6.0 0.00 0.03 0.00 60 1020.2
20260510120905 60 73 1.0 6.0 0.00 0.03 0.00 60 1020.2
20260510120804 60 75 2.0 6.0 0.00 0.03 0.00 59 1020.1
20260510120705 60 69 2.0 9.0 0.00 0.03 0.00 60 1020.1
20260510120605 60 65 2.0 9.0 0.00 0.03 0.00 60 1020.0
20260510120505 59 62 2.0 9.0 0.00 0.03 0.00 60 1019.9
20260510120405 60 62 2.0 9.0 0.00 0.03 0.00 60 1019.9
20260510120204 60 64 2.0 9.0 0.00 0.03 0.00 60 1019.8
20260510120104 60 65 2.0 9.0 0.00 0.03 0.00 60 1019.7
20260510120004 59 61 3.0 9.0 0.00 0.03 0.00 60 1019.7
20260510115804 59 59 3.0 9.0 0.00 0.03 0.00 60 1019.5
20260510115704 59 62 3.0 10.0 0.00 0.03 0.00 60 1019.5
20260510115604 59 64 3.0 13.0 0.00 0.03 0.00 60 1019.5
20260510115504 59 66 3.0 13.0 0.00 0.03 0.00 60 1019.4
20260510115306 59 63 4.0 13.0 0.00 0.03 0.00 61 1019.2
20260510115204 59 64 4.0 13.0 0.00 0.03 0.00 60 1019.1
20260510115104 59 68 4.0 13.0 0.00 0.03 0.00 60 1019.0
20260510114905 59 73 4.0 16.0 0.00 0.03 0.00 60 1018.9
20260510114804 59 75 4.0 16.0 0.00 0.03 0.00 61 1018.8
20260510114604 59 76 4.0 16.0 0.00 0.03 0.00 61 1018.8
20260510114505 59 77 4.0 16.0 0.00 0.03 0.00 61 1018.8
20260510114405 59 76 4.0 16.0 0.00 0.03 0.00 61 1018.8
20260510114305 59 79 4.0 16.0 0.00 0.03 0.00 61 1018.7
20260510114205 59 79 5.0 16.0 0.00 0.03 0.00 61 1018.7
20260510114105 59 76 4.0 16.0 0.00 0.03 0.00 61 1018.6
20260510114005 59 77 3.0 14.0 0.00 0.03 0.00 61 1018.6
20260510113804 59 70 3.0 10.0 0.00 0.03 0.00 62 1018.6
20260510113604 59 65 3.0 10.0 0.00 0.03 0.00 62 1018.5
20260510113505 59 61 3.0 10.0 0.00 0.03 0.00 63 1018.5
20260510113405 59 56 3.0 10.0 0.00 0.03 0.00 63 1018.4
20260510113305 59 49 3.0 10.0 0.00 0.03 0.00 63 1018.4
20260510113205 59 44 3.0 11.0 0.00 0.03 0.00 63 1018.4
20260510113105 59 47 3.0 11.0 0.00 0.03 0.00 63 1018.4
20260510113005 59 46 4.0 11.0 0.00 0.03 0.00 63 1018.3
20260510112905 59 47 3.0 11.0 0.00 0.03 0.00 63 1018.3
20260510112805 59 48 4.0 11.0 0.00 0.03 0.00 63 1018.3
20260510112704 59 46 3.0 11.0 0.00 0.03 0.00 63 1018.2
20260510112605 59 48 3.0 11.0 0.00 0.03 0.00 63 1018.2
20260510112405 59 50 3.0 11.0 0.00 0.03 0.00 64 1018.1
20260510112306 59 51 3.0 11.0 0.00 0.03 0.00 64 1018.1
20260510112105 59 49 3.0 11.0 0.00 0.03 0.00 64 1018.0
20260510111904 59 45 3.0 11.0 0.00 0.03 0.00 64 1018.0
20260510111804 59 40 3.0 11.0 0.00 0.03 0.00 64 1017.9
20260510111704 59 41 3.0 11.0 0.00 0.03 0.00 64 1017.9
20260510111604 59 38 3.0 11.0 0.00 0.03 0.00 64 1017.9
20260510111504 59 41 3.0 11.0 0.00 0.03 0.00 64 1017.9
20260510111404 59 40 3.0 11.0 0.00 0.03 0.00 64 1017.9
20260510111204 59 38 3.0 11.0 0.00 0.03 0.00 64 1017.9
20260510111104 59 37 3.0 11.0 0.00 0.03 0.00 64 1017.9
20260510111004 60 38 3.0 11.0 0.00 0.03 0.00 64 1017.9
20260510110904 60 42 3.0 10.0 0.00 0.03 0.00 64 1017.9
20260510110804 60 47 3.0 10.0 0.00 0.03 0.00 64 1017.9
20260510110704 60 44 3.0 10.0 0.00 0.03 0.00 64 1017.8
20260510110604 60 47 3.0 10.0 0.00 0.03 0.00 64 1017.9
20260510110504 60 43 3.0 10.0 0.00 0.03 0.00 64 1017.9
20260510110404 60 42 3.0 10.0 0.00 0.03 0.00 64 1017.9
20260510110304 60 39 3.0 10.0 0.00 0.03 0.00 64 1017.8
20260510110204 60 41 3.0 10.0 0.00 0.03 0.00 64 1017.9
20260510110104 60 31 3.0 11.0 0.00 0.03 0.00 64 1017.8
20260510110005 60 31 3.0 11.0 0.00 0.03 0.00 64 1017.8
20260510105804 60 22 3.0 11.0 0.00 0.03 0.00 63 1017.7
20260510105704 60 21 3.0 11.0 0.00 0.03 0.00 63 1017.7
20260510105604 60 18 3.0 11.0 0.00 0.03 0.00 63 1017.6
20260510105404 60 12 3.0 11.0 0.00 0.03 0.00 63 1017.6
20260510105204 60 9 3.0 11.0 0.00 0.03 0.00 63 1017.6
20260510105104 60 17 3.0 11.0 0.00 0.03 0.00 63 1017.7
20260510105004 60 12 3.0 11.0 0.00 0.03 0.00 63 1017.7
20260510104904 60 12 3.0 11.0 0.00 0.03 0.00 62 1017.7
20260510104804 60 17 3.0 10.0 0.00 0.03 0.00 62 1017.7
20260510104704 60 16 3.0 10.0 0.00 0.03 0.00 62 1017.7
20260510104604 60 17 3.0 10.0 0.00 0.03 0.00 62 1017.8
20260510104504 60 22 3.0 9.0 0.00 0.03 0.00 62 1017.8
20260510104404 60 22 3.0 9.0 0.00 0.03 0.00 62 1017.8
20260510104304 60 23 3.0 9.0 0.00 0.03 0.00 62 1017.8
20260510104204 60 28 3.0 9.0 0.00 0.03 0.00 62 1017.8
20260510104104 61 27 2.0 11.0 0.00 0.03 0.00 62 1017.8
20260510103904 61 33 3.0 11.0 0.00 0.03 0.00 62 1017.7
20260510103804 61 27 3.0 11.0 0.00 0.03 0.00 62 1017.7
20260510103704 61 24 3.0 11.0 0.00 0.03 0.00 62 1017.6
20260510103604 61 23 3.0 11.0 0.00 0.03 0.00 62 1017.6
20260510103504 61 21 3.0 11.0 0.00 0.03 0.00 62 1017.5
20260510103404 61 17 4.0 11.0 0.00 0.03 0.00 62 1017.4
20260510103304 61 13 4.0 11.0 0.00 0.03 0.00 62 1017.4
20260510103204 61 14 4.0 11.0 0.00 0.03 0.00 61 1017.4
20260510103104 61 12 4.0 10.0 0.00 0.03 0.00 61 1017.4
20260510103004 61 8 4.0 10.0 0.00 0.03 0.00 61 1017.4
20260510102904 61 7 4.0 10.0 0.00 0.03 0.00 61 1017.4
20260510102804 61 9 4.0 10.0 0.00 0.03 0.00 61 1017.4
20260510102704 61 7 4.0 10.0 0.00 0.03 0.00 61 1017.3
20260510102604 61 9 4.0 10.0 0.00 0.03 0.00 60 1017.4
20260510102504 61 10 4.0 10.0 0.00 0.03 0.00 60 1017.4
20260510102404 61 10 4.0 10.0 0.00 0.03 0.00 60 1017.4
20260510102306 62 8 4.0 10.0 0.00 0.03 0.00 60 1017.4
20260510102204 62 4 4.0 10.0 0.00 0.03 0.00 60 1017.4
20260510102104 62 6 3.0 10.0 0.00 0.03 0.00 60 1017.4
20260510102005 62 10 3.0 10.0 0.00 0.03 0.00 60 1017.3
20260510101905 62 12 4.0 10.0 0.00 0.03 0.00 60 1017.3
20260510101805 62 14 4.0 10.0 0.00 0.03 0.00 59 1017.3
20260510101705 62 17 4.0 10.0 0.00 0.03 0.00 60 1017.3
20260510101605 62 8 4.0 9.0 0.00 0.03 0.00 59 1017.2
20260510101505 62 6 4.0 10.0 0.00 0.03 0.00 59 1017.2
20260510101305 62 14 3.0 10.0 0.00 0.03 0.00 59 1017.2
20260510101205 62 14 3.0 10.0 0.00 0.03 0.00 59 1017.2
20260510101105 62 13 3.0 10.0 0.00 0.03 0.00 59 1017.2
20260510101005 62 14 3.0 10.0 0.00 0.03 0.00 59 1017.2
20260510100905 62 12 3.0 10.0 0.00 0.03 0.00 59 1017.2
20260510100705 62 10 3.0 10.0 0.00 0.03 0.00 59 1017.1
20260510100505 62 27 2.0 10.0 0.00 0.03 0.00 59 1017.2
20260510100405 62 29 2.0 10.0 0.00 0.03 0.00 59 1017.2
20260510100305 62 27 2.0 10.0 0.00 0.03 0.00 59 1017.2
20260510100105 62 30 3.0 10.0 0.00 0.03 0.00 59 1017.1
20260510100005 62 28 3.0 10.0 0.00 0.03 0.00 59 1017.1
20260510095905 62 30 3.0 10.0 0.00 0.03 0.00 59 1017.1
20260510095804 62 26 3.0 10.0 0.00 0.03 0.00 59 1017.1
20260510095705 62 30 3.0 10.0 0.00 0.03 0.00 59 1017.1
20260510095604 62 28 3.0 9.0 0.00 0.03 0.00 59 1017.1
20260510095504 62 29 3.0 9.0 0.00 0.03 0.00 59 1017.1
20260510095404 62 25 3.0 9.0 0.00 0.03 0.00 59 1017.1
20260510095204 62 24 3.0 11.0 0.00 0.03 0.00 59 1017.0
20260510095005 62 26 3.0 11.0 0.00 0.03 0.00 59 1016.9
20260510094904 62 28 3.0 11.0 0.00 0.03 0.00 59 1016.9
20260510094805 62 34 3.0 11.0 0.00 0.03 0.00 59 1016.9
20260510094705 62 30 3.0 11.0 0.00 0.03 0.00 59 1016.9
20260510094605 62 30 3.0 11.0 0.00 0.03 0.00 59 1016.9
20260510094505 62 25 3.0 11.0 0.00 0.03 0.00 59 1016.9
20260510094405 62 32 3.0 11.0 0.00 0.03 0.00 59 1016.9
20260510094305 62 32 3.0 11.0 0.00 0.03 0.00 59 1016.9
20260510094205 62 33 3.0 9.0 0.00 0.03 0.00 59 1016.8
20260510094105 62 35 3.0 9.0 0.00 0.03 0.00 59 1016.7
20260510094005 62 33 3.0 9.0 0.00 0.03 0.00 59 1016.8
20260510093905 62 32 3.0 12.0 0.00 0.03 0.00 59 1016.7
20260510093805 62 33 3.0 12.0 0.00 0.03 0.00 59 1016.7
20260510093705 62 36 3.0 12.0 0.00 0.03 0.00 59 1016.7
20260510093605 62 42 3.0 12.0 0.00 0.03 0.00 59 1016.7
20260510093504 62 46 3.0 12.0 0.00 0.03 0.00 59 1016.7
20260510093405 62 45 3.0 12.0 0.00 0.03 0.00 59 1016.7
20260510093305 62 49 3.0 12.0 0.00 0.03 0.00 59 1016.6
20260510093204 62 52 3.0 12.0 0.00 0.03 0.00 59 1016.6
20260510093005 62 59 3.0 12.0 0.00 0.03 0.00 58 1016.5
20260510092904 62 64 3.0 10.0 0.00 0.03 0.00 58 1016.4
20260510092804 62 62 3.0 10.0 0.00 0.03 0.00 58 1016.4
20260510092704 62 66 2.0 9.0 0.00 0.03 0.00 58 1016.3
20260510092605 62 65 2.0 9.0 0.00 0.03 0.00 59 1016.3
20260510092505 62 67 2.0 9.0 0.00 0.03 0.00 59 1016.2
20260510092306 62 63 3.0 9.0 0.00 0.03 0.00 58 1016.2
20260510092204 62 63 3.0 9.0 0.00 0.03 0.00 58 1016.1
20260510092005 62 48 3.0 12.0 0.00 0.03 0.00 58 1016.1
20260510091905 62 49 3.0 12.0 0.00 0.03 0.00 58 1016.2
20260510091804 62 46 3.0 12.0 0.00 0.03 0.00 59 1016.2
20260510091704 62 43 3.0 12.0 0.00 0.03 0.00 58 1016.2
20260510091604 62 41 3.0 12.0 0.00 0.03 0.00 58 1016.3
20260510091504 62 41 3.0 12.0 0.00 0.03 0.00 58 1016.3
20260510091404 62 44 3.0 12.0 0.00 0.03 0.00 58 1016.4
20260510091304 62 44 4.0 12.0 0.00 0.03 0.00 58 1016.4
20260510091204 62 39 4.0 12.0 0.00 0.03 0.00 58 1016.5
20260510091104 62 42 4.0 12.0 0.00 0.03 0.00 58 1016.4
20260510091004 62 40 4.0 12.0 0.00 0.03 0.00 58 1016.4
20260510090904 62 35 4.0 12.0 0.00 0.03 0.00 58 1016.5
20260510090804 62 35 3.0 12.0 0.00 0.03 0.00 58 1016.4
20260510090504 62 40 3.0 12.0 0.00 0.03 0.00 58 1016.4
20260510090404 62 37 4.0 12.0 0.00 0.03 0.00 58 1016.4
20260510090304 62 35 3.0 12.0 0.00 0.03 0.00 58 1016.4
20260510090204 62 38 3.0 11.0 0.00 0.03 0.00 58 1016.4
20260510090104 62 39 3.0 11.0 0.00 0.03 0.00 58 1016.4
20260510090004 62 45 3.0 8.0 0.00 0.03 0.00 58 1016.3
20260510085904 62 47 3.0 8.0 0.00 0.03 0.00 58 1016.3
20260510085804 62 46 3.0 8.0 0.00 0.03 0.00 58 1016.2
20260510085704 62 44 3.0 8.0 0.00 0.03 0.00 59 1016.2
20260510085604 62 40 3.0 8.0 0.00 0.03 0.00 59 1016.1
20260510085404 62 39 3.0 8.0 0.00 0.03 0.00 59 1016.1
20260510085104 62 38 2.0 7.0 0.00 0.03 0.00 59 1016.1
20260510085004 62 32 2.0 7.0 0.00 0.03 0.00 59 1016.2
20260510084904 62 37 2.0 7.0 0.00 0.03 0.00 59 1016.2
20260510084804 62 34 2.0 7.0 0.00 0.03 0.00 60 1016.2
20260510084704 62 38 2.0 7.0 0.00 0.03 0.00 60 1016.3
20260510084604 62 47 2.0 6.0 0.00 0.03 0.00 60 1016.2
20260510084504 62 44 2.0 6.0 0.00 0.03 0.00 60 1016.2
20260510084404 62 45 2.0 6.0 0.00 0.03 0.00 60 1016.2
20260510084304 62 43 2.0 7.0 0.00 0.03 0.00 60 1016.2
20260510084204 62 39 2.0 7.0 0.00 0.03 0.00 60 1016.2
20260510084104 62 42 2.0 7.0 0.00 0.03 0.00 60 1016.2
20260510084004 62 51 2.0 7.0 0.00 0.03 0.00 60 1016.2
20260510083804 62 46 2.0 7.0 0.00 0.03 0.00 61 1016.1
20260510083704 62 41 2.0 7.0 0.00 0.03 0.00 61 1016.1
20260510083604 62 38 2.0 7.0 0.00 0.03 0.00 61 1016.2
20260510083504 62 39 2.0 7.0 0.00 0.03 0.00 61 1016.2
20260510083404 62 41 2.0 7.0 0.00 0.03 0.00 61 1016.1
20260510083204 62 46 2.0 5.0 0.00 0.03 0.00 61 1016.1
20260510083104 62 48 2.0 5.0 0.00 0.03 0.00 61 1016.1
20260510083004 62 43 2.0 5.0 0.00 0.03 0.00 61 1016.1
20260510082904 62 45 1.0 5.0 0.00 0.03 0.00 62 1016.1
20260510082704 62 58 1.0 5.0 0.00 0.03 0.00 62 1016.0
20260510082504 62 61 1.0 5.0 0.00 0.03 0.00 62 1016.1
20260510082404 62 57 1.0 5.0 0.00 0.03 0.00 62 1016.0
20260510082306 62 55 1.0 6.0 0.00 0.03 0.00 62 1016.0
20260510082004 62 53 1.0 6.0 0.00 0.03 0.00 62 1016.0
20260510081905 62 49 1.0 9.0 0.00 0.03 0.00 62 1016.0
20260510081805 62 51 1.0 9.0 0.00 0.03 0.00 62 1016.0
20260510081705 63 53 2.0 9.0 0.00 0.03 0.00 62 1016.0
20260510081605 63 54 2.0 9.0 0.00 0.03 0.00 62 1016.0
20260510081505 63 55 2.0 9.0 0.00 0.03 0.00 62 1016.0
20260510081405 63 53 2.0 9.0 0.00 0.03 0.00 62 1016.0
20260510081305 63 51 2.0 9.0 0.00 0.03 0.00 62 1016.0
20260510081205 63 56 2.0 9.0 0.00 0.03 0.00 62 1016.0
20260510081004 63 54 2.0 9.0 0.00 0.03 0.00 62 1016.0
20260510080804 63 57 2.0 9.0 0.00 0.03 0.00 62 1015.9
20260510080704 63 55 2.0 9.0 0.00 0.03 0.00 62 1016.0
20260510080604 63 54 2.0 9.0 0.00 0.03 0.00 62 1015.9
20260510080504 63 50 2.0 9.0 0.00 0.03 0.00 62 1015.9
20260510080404 63 49 2.0 9.0 0.00 0.03 0.00 62 1015.9
20260510080304 63 49 3.0 9.0 0.00 0.03 0.00 62 1015.9
20260510080104 63 41 2.0 10.0 0.00 0.03 0.00 62 1015.9
20260510075904 63 36 3.0 10.0 0.00 0.03 0.00 63 1016.0
20260510075804 63 34 3.0 10.0 0.00 0.03 0.00 63 1016.0
20260510075704 63 34 3.0 10.0 0.00 0.03 0.00 63 1016.0
20260510075504 63 30 3.0 10.0 0.00 0.03 0.00 63 1015.9
20260510075404 63 32 3.0 10.0 0.00 0.03 0.00 63 1015.9
20260510075306 63 32 2.0 10.0 0.00 0.03 0.00 63 1015.9
20260510075204 63 32 2.0 7.0 0.00 0.03 0.00 63 1015.8
20260510075104 63 31 2.0 7.0 0.00 0.03 0.00 63 1015.8
20260510075004 63 30 2.0 7.0 0.00 0.03 0.00 63 1015.8
20260510074904 63 36 2.0 7.0 0.00 0.03 0.00 63 1015.8
20260510074804 63 40 2.0 7.0 0.00 0.03 0.00 63 1015.8
20260510074704 63 40 2.0 7.0 0.00 0.03 0.00 63 1015.7
20260510074604 63 43 1.0 7.0 0.00 0.03 0.00 62 1015.7
20260510074504 63 53 1.0 7.0 0.00 0.03 0.00 62 1015.6
20260510074404 63 57 1.0 4.0 0.00 0.03 0.00 62 1015.5
20260510074304 64 62 1.0 4.0 0.00 0.03 0.00 62 1015.5
20260510074204 64 68 1.0 4.0 0.00 0.03 0.00 62 1015.5
20260510074104 64 67 1.0 4.0 0.00 0.03 0.00 62 1015.5
20260510073904 64 73 1.0 5.0 0.00 0.03 0.00 62 1015.5
20260510073804 64 72 1.0 5.0 0.00 0.03 0.00 62 1015.5
20260510073704 64 71 1.0 6.0 0.00 0.03 0.00 61 1015.5
20260510073604 64 71 1.0 6.0 0.00 0.03 0.00 61 1015.5
20260510073504 64 72 1.0 6.0 0.00 0.03 0.00 61 1015.5
20260510073404 64 74 1.0 6.0 0.00 0.03 0.00 61 1015.5
20260510073304 64 74 1.0 6.0 0.00 0.03 0.00 61 1015.5
20260510073204 64 68 1.0 6.0 0.00 0.03 0.00 61 1015.5
20260510073104 64 68 1.0 6.0 0.00 0.03 0.00 61 1015.5
20260510073004 64 68 1.0 6.0 0.00 0.03 0.00 61 1015.5
20260510072804 64 63 1.0 6.0 0.00 0.03 0.00 60 1015.4
20260510072704 64 62 1.0 5.0 0.00 0.03 0.00 61 1015.5
20260510072604 64 59 1.0 5.0 0.00 0.03 0.00 61 1015.5
20260510072404 64 56 1.0 5.0 0.00 0.03 0.00 60 1015.5
20260510072306 64 54 0.0 5.0 0.00 0.03 0.00 60 1015.5
20260510072104 64 57 1.0 5.0 0.00 0.03 0.00 60 1015.6
20260510071904 65 55 1.0 5.0 0.00 0.03 0.00 60 1015.7
20260510071704 65 63 1.0 5.0 0.00 0.03 0.00 60 1015.7
20260510071604 65 65 1.0 5.0 0.00 0.03 0.00 59 1015.6
20260510071504 65 66 1.0 5.0 0.00 0.03 0.00 60 1015.5
20260510071404 65 72 1.0 5.0 0.00 0.03 0.00 59 1015.5
20260510071304 65 72 1.0 5.0 0.00 0.03 0.00 59 1015.5
20260510071104 65 78 1.0 4.0 0.00 0.03 0.00 59 1015.4
20260510071004 65 84 1.0 4.0 0.00 0.03 0.00 58 1015.3
20260510070904 65 92 1.0 6.0 0.00 0.03 0.00 58 1015.3
20260510070804 66 88 1.0 6.0 0.00 0.03 0.00 58 1015.3
20260510070704 66 87 1.0 6.0 0.00 0.03 0.00 58 1015.3
20260510070604 66 88 1.0 6.0 0.00 0.03 0.00 58 1015.3
20260510070504 66 88 1.0 6.0 0.00 0.03 0.00 58 1015.3
20260510070404 66 84 1.0 6.0 0.00 0.03 0.00 58 1015.3
20260510070304 66 85 1.0 6.0 0.00 0.03 0.00 58 1015.3
20260510070204 66 84 2.0 6.0 0.00 0.03 0.00 58 1015.3
20260510070104 66 85 2.0 7.0 0.00 0.03 0.00 58 1015.3
20260510070004 66 84 2.0 7.0 0.00 0.03 0.00 57 1015.3
20260510065904 66 83 2.0 7.0 0.00 0.03 0.00 57 1015.3
20260510065704 66 81 2.0 9.0 0.00 0.03 0.00 57 1015.2
20260510065604 66 79 2.0 9.0 0.00 0.03 0.00 57 1015.2
20260510065504 66 77 2.0 9.0 0.00 0.03 0.00 57 1015.2
20260510065404 66 77 2.0 9.0 0.00 0.03 0.00 57 1015.1
20260510065204 66 74 2.0 9.0 0.00 0.03 0.00 57 1015.1
20260510065104 66 73 2.0 9.0 0.00 0.03 0.00 57 1015.1
20260510064704 66 75 2.0 7.0 0.00 0.03 0.00 57 1015.1
20260510064504 66 78 2.0 7.0 0.00 0.03 0.00 56 1015.1
20260510064404 67 81 2.0 7.0 0.00 0.03 0.00 56 1015.1
20260510064204 67 82 2.0 7.0 0.00 0.03 0.00 56 1015.1
20260510064004 67 84 2.0 7.0 0.00 0.03 0.00 56 1015.0
20260510063904 67 86 2.0 6.0 0.00 0.03 0.00 56 1015.0
20260510063804 67 85 2.0 6.0 0.00 0.03 0.00 56 1014.9
20260510063704 67 85 2.0 6.0 0.00 0.03 0.00 56 1014.9
20260510063604 67 86 2.0 6.0 0.00 0.03 0.00 56 1014.9
20260510063404 67 86 2.0 6.0 0.00 0.03 0.00 56 1014.9
20260510063304 67 87 1.0 6.0 0.00 0.03 0.00 56 1014.9
20260510063204 67 88 1.0 6.0 0.00 0.03 0.00 56 1015.0
20260510063104 67 89 2.0 9.0 0.00 0.03 0.00 56 1015.0
20260510063004 67 85 2.0 9.0 0.00 0.03 0.00 56 1015.0
20260510062904 67 86 2.0 9.0 0.00 0.03 0.00 56 1015.0
20260510062804 67 87 2.0 9.0 0.00 0.03 0.00 56 1014.9
20260510062604 67 84 2.0 9.0 0.00 0.03 0.00 57 1014.9
20260510062504 67 85 2.0 9.0 0.00 0.03 0.00 56 1014.9
20260510062204 67 85 2.0 9.0 0.00 0.03 0.00 56 1014.8
20260510062105 67 84 2.0 9.0 0.00 0.03 0.00 56 1014.8
20260510062004 67 87 2.0 6.0 0.00 0.03 0.00 57 1014.8
20260510061904 67 86 2.0 6.0 0.00 0.03 0.00 56 1014.8
20260510061804 67 86 2.0 6.0 0.00 0.03 0.00 56 1014.8
20260510061605 67 89 2.0 6.0 0.00 0.03 0.00 56 1014.7
20260510061404 67 82 2.0 6.0 0.00 0.03 0.00 57 1014.7
20260510061305 67 84 2.0 6.0 0.00 0.03 0.00 57 1014.8
20260510061204 67 81 2.0 6.0 0.00 0.03 0.00 57 1014.8
20260510061105 67 79 1.0 6.0 0.00 0.03 0.00 57 1014.7
20260510061005 67 76 1.0 6.0 0.00 0.03 0.00 56 1014.7
20260510060904 67 74 1.0 5.0 0.00 0.03 0.00 57 1014.7
20260510060805 67 71 2.0 5.0 0.00 0.03 0.00 57 1014.7
20260510060705 67 74 2.0 10.0 0.00 0.03 0.00 57 1014.6
20260510060604 67 75 2.0 10.0 0.00 0.03 0.00 57 1014.6
20260510060504 67 78 2.0 10.0 0.00 0.03 0.00 57 1014.6
20260510060405 67 81 2.0 10.0 0.00 0.03 0.00 57 1014.6
20260510060305 67 82 2.0 10.0 0.00 0.03 0.00 57 1014.5
20260510060104 67 83 2.0 10.0 0.00 0.03 0.00 57 1014.5
20260510055904 67 82 2.0 10.0 0.00 0.03 0.00 56 1014.3
20260510055804 67 84 2.0 10.0 0.00 0.03 0.00 56 1014.3
20260510055704 67 83 2.0 7.0 0.00 0.03 0.00 57 1014.3
20260510055604 67 85 2.0 7.0 0.00 0.03 0.00 57 1014.3
20260510055504 67 84 2.0 7.0 0.00 0.03 0.00 57 1014.3
20260510055405 67 84 2.0 7.0 0.00 0.03 0.00 56 1014.3
20260510055306 67 85 2.0 7.0 0.00 0.03 0.00 56 1014.3
20260510055205 67 82 2.0 7.0 0.00 0.03 0.00 56 1014.3
20260510055105 67 81 2.0 8.0 0.00 0.03 0.00 56 1014.3
20260510055005 67 83 2.0 8.0 0.00 0.03 0.00 56 1014.2
20260510054904 67 80 2.0 8.0 0.00 0.03 0.00 57 1014.1
20260510054804 67 80 2.0 8.0 0.00 0.03 0.00 56 1014.1
20260510054705 67 78 2.0 8.0 0.00 0.03 0.00 56 1014.1
20260510054605 67 72 2.0 8.0 0.00 0.03 0.00 56 1014.0
20260510054505 67 73 2.0 8.0 0.00 0.03 0.00 56 1013.9
20260510054405 67 72 2.0 8.0 0.00 0.03 0.00 56 1013.9
20260510054304 67 69 2.0 8.0 0.00 0.03 0.00 56 1013.9
20260510054205 67 72 2.0 8.0 0.00 0.03 0.00 57 1013.8
20260510054105 67 73 2.0 5.0 0.00 0.03 0.00 57 1013.8
20260510054004 67 70 2.0 5.0 0.00 0.03 0.00 56 1013.8
20260510053905 67 74 2.0 5.0 0.00 0.03 0.00 56 1013.8
20260510053804 67 74 2.0 5.0 0.00 0.03 0.00 56 1013.8
20260510053705 67 75 2.0 5.0 0.00 0.03 0.00 56 1013.8
20260510053605 68 77 2.0 5.0 0.00 0.03 0.00 56 1013.8
20260510053504 68 72 2.0 6.0 0.00 0.03 0.00 56 1013.8
20260510053404 68 73 2.0 6.0 0.00 0.03 0.00 56 1013.8
20260510053304 68 76 2.0 6.0 0.00 0.03 0.00 56 1013.8
20260510053005 68 72 2.0 6.0 0.00 0.03 0.00 56 1013.8
20260510052904 68 68 2.0 8.0 0.00 0.03 0.00 56 1013.8
20260510052804 68 67 2.0 8.0 0.00 0.03 0.00 56 1013.8
20260510052704 68 67 2.0 8.0 0.00 0.03 0.00 56 1013.8
20260510052604 68 67 2.0 8.0 0.00 0.03 0.00 56 1013.7
20260510052504 68 71 1.0 8.0 0.00 0.03 0.00 56 1013.7
20260510052404 68 66 1.0 8.0 0.00 0.03 0.00 57 1013.8
20260510052306 68 61 2.0 8.0 0.00 0.03 0.00 57 1013.8
20260510052204 68 61 2.0 8.0 0.00 0.03 0.00 56 1013.8
20260510051904 68 56 2.0 7.0 0.00 0.03 0.00 56 1013.8
20260510051704 68 53 2.0 7.0 0.00 0.03 0.00 57 1013.8
20260510051605 68 51 2.0 7.0 0.00 0.03 0.00 57 1013.8
20260510051504 68 52 2.0 7.0 0.00 0.03 0.00 57 1013.8
20260510051404 68 54 2.0 7.0 0.00 0.03 0.00 56 1013.8
20260510051304 68 54 2.0 7.0 0.00 0.03 0.00 56 1013.8
20260510051204 68 51 2.0 7.0 0.00 0.03 0.00 57 1013.7
20260510051104 68 52 2.0 7.0 0.00 0.03 0.00 57 1013.7
20260510051004 68 46 2.0 6.0 0.00 0.03 0.00 57 1013.7
20260510050904 68 38 2.0 6.0 0.00 0.03 0.00 57 1013.7
20260510050805 68 35 2.0 6.0 0.00 0.03 0.00 57 1013.7
20260510050704 68 30 2.0 6.0 0.00 0.03 0.00 57 1013.7
20260510050504 68 26 2.0 6.0 0.00 0.03 0.00 57 1013.7
20260510050305 68 23 2.0 6.0 0.00 0.03 0.00 58 1013.7
20260510050104 68 21 1.0 6.0 0.00 0.03 0.00 58 1013.7
20260510050006 67 23 1.0 6.0 0.00 0.03 0.00 58 1013.6
20260510045804 67 37 1.0 5.0 0.00 0.03 0.03 58 1013.7
20260510045704 67 40 1.0 5.0 0.00 0.03 0.03 59 1013.7
20260510045604 67 39 1.0 7.0 0.00 0.03 0.03 59 1013.7
20260510045204 67 42 1.0 7.0 0.00 0.03 0.03 60 1013.6
20260510044704 67 43 0.0 7.0 0.00 0.03 0.03 59 1013.7
20260510044504 67 45 0.0 2.0 0.00 0.03 0.03 59 1013.6
20260510044404 66 42 0.0 2.0 0.00 0.03 0.03 59 1013.6
20260510044304 66 42 0.0 2.0 0.00 0.03 0.03 59 1013.6
20260510044204 66 31 0.0 2.0 0.00 0.03 0.03 59 1013.5
20260510044104 66 64 0.0 1.0 0.00 0.03 0.03 59 1013.4
20260510044004 66 0 0.0 0.0 0.00 0.03 0.03 60 1013.5
20260510043904 66 0 0.0 0.0 0.00 0.03 0.03 61 1013.5
20260510043804 66 0 0.0 0.0 0.00 0.03 0.03 60 1013.5
20260510043704 66 0 0.0 0.0 0.00 0.03 0.03 61 1013.5
20260510043504 67 0 0.0 0.0 0.00 0.03 0.03 60 1013.5
20260510043404 67 0 0.0 0.0 0.00 0.03 0.03 61 1013.5
20260510043304 67 0 0.0 0.0 0.00 0.03 0.03 60 1013.4
20260510043204 67 0 0.0 0.0 0.00 0.03 0.03 59 1013.4
20260510043104 67 0 0.0 0.0 0.00 0.03 0.03 59 1013.4
20260510042905 67 0 0.0 0.0 0.00 0.03 0.03 59 1013.3
20260510042805 67 0 0.0 0.0 0.00 0.03 0.03 59 1013.4
20260510042705 67 0 0.0 0.0 0.00 0.03 0.03 58 1013.4
20260510042605 67 0 0.0 0.0 0.00 0.03 0.03 58 1013.4
20260510042505 67 0 0.0 0.0 0.00 0.03 0.03 58 1013.4
20260510042405 67 0 0.0 0.0 0.00 0.03 0.03 59 1013.4
20260510042306 67 0 0.0 0.0 0.00 0.03 0.03 59 1013.5
20260510042104 67 0 0.0 0.0 0.00 0.03 0.03 59 1013.5
20260510042005 67 0 0.0 0.0 0.00 0.03 0.03 59 1013.5
20260510041904 67 0 0.0 0.0 0.00 0.03 0.03 59 1013.5
20260510041804 67 0 0.0 0.0 0.00 0.03 0.03 59 1013.5
20260510041704 67 0 0.0 0.0 0.00 0.03 0.03 58 1013.4
20260510041604 67 0 0.0 0.0 0.00 0.03 0.03 60 1013.4
20260510041405 67 0 0.0 0.0 0.00 0.03 0.03 60 1013.4
20260510041305 67 0 0.0 0.0 0.00 0.03 0.03 59 1013.4
20260510041204 67 0 0.0 0.0 0.00 0.03 0.03 57 1013.4
20260510041105 67 0 0.0 0.0 0.00 0.03 0.03 57 1013.3
20260510041005 67 0 0.0 0.0 0.00 0.03 0.03 58 1013.3
20260510040904 67 0 0.0 0.0 0.00 0.03 0.03 58 1013.4
20260510040804 67 0 0.0 0.0 0.00 0.03 0.03 58 1013.4
20260510040705 68 80 0.0 2.0 0.00 0.03 0.03 58 1013.4
20260510040605 68 80 0.0 2.0 0.00 0.03 0.03 58 1013.5
20260510040305 68 60 0.0 2.0 0.00 0.03 0.03 58 1013.5
20260510040205 68 60 0.0 2.0 0.00 0.03 0.03 58 1013.5
20260510040105 67 63 0.0 2.0 0.00 0.03 0.03 58 1013.5
20260510040005 67 64 0.0 2.0 0.00 0.03 0.03 59 1013.5
20260510035905 67 64 0.0 2.0 0.00 0.03 0.03 58 1013.6
20260510035805 67 64 0.0 2.0 0.00 0.03 0.03 58 1013.6
20260510035705 67 58 0.0 2.0 0.00 0.03 0.03 59 1013.6
20260510035504 67 72 0.0 2.0 0.00 0.03 0.03 59 1013.6
20260510035404 67 77 0.0 2.0 0.00 0.03 0.03 58 1013.6
20260510035306 67 119 0.0 1.0 0.00 0.03 0.03 59 1013.5
20260510035204 67 119 0.0 1.0 0.00 0.03 0.03 59 1013.5
20260510035104 68 120 0.0 1.0 0.00 0.03 0.03 59 1013.4
20260510035004 68 0 0.0 0.0 0.00 0.03 0.03 59 1013.4
20260510034904 68 0 0.0 0.0 0.00 0.03 0.03 58 1013.3
20260510034704 68 0 0.0 0.0 0.00 0.03 0.03 58 1013.2
20260510034604 68 0 0.0 0.0 0.00 0.03 0.03 58 1013.2
20260510034405 68 0 0.0 0.0 0.00 0.03 0.03 57 1013.2
20260510034304 68 159 0.0 1.0 0.00 0.03 0.03 57 1013.2
20260510034205 68 159 0.0 1.0 0.00 0.03 0.03 58 1013.3
20260510034005 68 159 0.0 1.0 0.00 0.03 0.03 57 1013.3
20260510033805 68 159 0.0 1.0 0.00 0.03 0.03 56 1013.2
20260510033705 68 159 0.0 1.0 0.00 0.03 0.03 56 1013.3
20260510033605 68 159 0.0 1.0 0.00 0.03 0.03 58 1013.3
20260510033505 68 159 0.0 1.0 0.00 0.03 0.03 56 1013.2
20260510033204 69 0 0.0 0.0 0.00 0.03 0.03 53 1013.1
20260510033104 69 0 0.0 0.0 0.00 0.03 0.03 52 1013.0
20260510033005 69 0 0.0 0.0 0.00 0.03 0.03 52 1012.9
20260510032805 69 0 0.0 0.0 0.00 0.03 0.03 52 1012.9
20260510032705 69 0 0.0 0.0 0.00 0.03 0.03 53 1012.8
20260510032605 69 0 0.0 0.0 0.00 0.03 0.03 53 1012.8
20260510032505 69 0 0.0 0.0 0.00 0.03 0.03 52 1012.8
20260510032405 69 0 0.0 0.0 0.00 0.03 0.03 52 1012.8
20260510032306 69 0 0.0 0.0 0.00 0.03 0.03 52 1012.8
20260510032205 69 0 0.0 0.0 0.00 0.03 0.03 52 1012.8
20260510032105 70 0 0.0 0.0 0.00 0.03 0.03 53 1012.8
20260510032005 70 0 0.0 0.0 0.00 0.03 0.03 53 1012.8
20260510031905 70 0 0.0 0.0 0.00 0.03 0.03 52 1012.7
20260510031805 70 0 0.0 0.0 0.00 0.03 0.03 52 1012.7
20260510031705 70 159 0.0 1.0 0.00 0.03 0.03 51 1012.7
20260510031605 70 159 0.0 1.0 0.00 0.03 0.03 51 1012.7
20260510031505 70 161 0.0 2.0 0.00 0.03 0.03 51 1012.6
20260510031405 70 161 0.0 2.0 0.00 0.03 0.03 51 1012.6
20260510031204 70 160 0.0 2.0 0.00 0.03 0.03 51 1012.5
20260510031104 70 155 0.0 2.0 0.00 0.03 0.03 51 1012.5
20260510031004 70 153 0.0 2.0 0.00 0.03 0.03 51 1012.4
20260510030904 70 154 0.0 3.0 0.00 0.03 0.03 50 1012.4
20260510030804 70 155 1.0 3.0 0.00 0.03 0.03 49 1012.4
20260510030704 70 156 1.0 3.0 0.00 0.03 0.03 49 1012.4
20260510030604 70 157 1.0 3.0 0.00 0.03 0.03 49 1012.4
20260510030504 70 158 1.0 3.0 0.00 0.03 0.03 49 1012.4
20260510030404 71 158 1.0 3.0 0.00 0.03 0.03 49 1012.4
20260510030304 71 158 1.0 3.0 0.00 0.03 0.03 49 1012.4
20260510030204 71 158 1.0 3.0 0.00 0.03 0.03 49 1012.4
20260510030104 71 161 1.0 3.0 0.00 0.03 0.03 50 1012.4
20260510030004 71 161 1.0 3.0 0.00 0.03 0.03 49 1012.4
20260510025904 71 161 1.0 3.0 0.00 0.03 0.03 49 1012.4
20260510025804 70 161 1.0 3.0 0.00 0.03 0.03 49 1012.3
20260510025704 70 158 1.0 3.0 0.00 0.03 0.03 49 1012.4
20260510025604 70 157 1.0 3.0 0.00 0.03 0.03 49 1012.4
20260510025504 70 156 1.0 3.0 0.00 0.03 0.03 49 1012.4
20260510025404 70 155 1.0 3.0 0.00 0.03 0.03 50 1012.4
20260510025204 70 153 1.0 3.0 0.00 0.03 0.03 49 1012.4
20260510025104 70 152 1.0 3.0 0.00 0.03 0.03 50 1012.4
20260510025004 70 153 1.0 3.0 0.01 0.03 0.03 49 1012.4
20260510024904 70 153 1.0 3.0 0.01 0.03 0.03 50 1012.5
20260510024804 70 153 1.0 3.0 0.01 0.03 0.03 50 1012.4
20260510024705 70 155 1.0 2.0 0.01 0.03 0.03 50 1012.4
20260510024605 70 154 1.0 2.0 0.01 0.03 0.03 50 1012.4
20260510024504 70 155 1.0 3.0 0.01 0.03 0.03 50 1012.4
20260510024304 70 156 1.0 3.0 0.01 0.03 0.03 50 1012.4
20260510024204 70 156 1.0 3.0 0.02 0.03 0.03 51 1012.3
20260510024004 70 158 1.0 3.0 0.02 0.03 0.03 51 1012.4
20260510023904 70 160 1.0 3.0 0.02 0.03 0.03 51 1012.4
20260510023804 70 159 1.0 3.0 0.02 0.03 0.03 49 1012.4
20260510023704 70 158 1.0 3.0 0.02 0.03 0.03 51 1012.4
20260510023504 70 158 1.0 3.0 0.02 0.03 0.03 52 1012.3
20260510023404 70 157 1.0 3.0 0.03 0.03 0.03 53 1012.3
20260510023304 70 158 1.0 3.0 0.03 0.03 0.03 53 1012.2
20260510023204 70 158 0.0 3.0 0.03 0.03 0.03 53 1012.2
20260510023104 70 158 0.0 3.0 0.03 0.03 0.03 52 1012.3
20260510022904 70 149 0.0 2.0 0.03 0.03 0.03 53 1012.2
20260510022805 70 148 0.0 2.0 0.03 0.03 0.03 53 1012.2
20260510022605 70 152 0.0 1.0 0.03 0.03 0.03 55 1012.0
20260510022505 70 152 0.0 1.0 0.03 0.03 0.03 54 1012.0
20260510022404 70 148 0.0 2.0 0.03 0.03 0.03 54 1011.9
20260510022306 70 148 0.0 2.0 0.03 0.03 0.03 55 1011.9
20260510022204 70 147 0.0 2.0 0.03 0.03 0.03 54 1011.9
20260510022104 70 147 0.0 2.0 0.03 0.03 0.03 54 1011.9
20260510022004 70 147 0.0 2.0 0.03 0.03 0.03 55 1012.0
20260510021804 70 132 0.0 2.0 0.03 0.03 0.03 54 1011.9
20260510021704 70 131 0.0 2.0 0.03 0.03 0.03 53 1011.9
20260510021605 71 127 0.0 2.0 0.03 0.03 0.03 52 1011.9
20260510021504 71 122 0.0 2.0 0.03 0.03 0.03 52 1012.0
20260510021404 71 117 0.0 2.0 0.03 0.03 0.03 52 1012.1
20260510021205 72 116 0.0 2.0 0.03 0.03 0.03 53 1012.2
20260510021105 72 113 0.0 3.0 0.03 0.03 0.03 52 1012.2
20260510021005 72 116 0.0 3.0 0.03 0.03 0.03 47 1012.2
20260510020905 72 112 1.0 3.0 0.03 0.03 0.03 47 1012.2
20260510020805 72 108 1.0 6.0 0.03 0.03 0.03 42 1012.1
20260510020705 72 108 1.0 6.0 0.03 0.03 0.03 41 1012.2
20260510020605 72 108 1.0 6.0 0.03 0.03 0.03 43 1012.2
20260510020505 72 107 1.0 6.0 0.03 0.03 0.03 44 1012.3
20260510020405 72 104 1.0 6.0 0.03 0.03 0.03 44 1012.3
20260510020305 72 91 1.0 6.0 0.03 0.03 0.03 44 1012.3
20260510020205 72 75 2.0 6.0 0.03 0.03 0.03 43 1012.3
20260510020105 72 23 2.0 10.0 0.03 0.03 0.03 43 1012.4
20260510020005 72 356 3.0 10.0 0.03 0.03 0.03 42 1012.4
20260510015904 72 350 3.0 10.0 0.03 0.03 0.03 46 1012.4
20260510015805 73 347 3.0 10.0 0.03 0.03 0.03 46 1012.4
20260510015705 73 350 3.0 10.0 0.03 0.03 0.03 44 1012.4
20260510015604 73 353 4.0 10.0 0.03 0.03 0.03 45 1012.4
20260510015505 73 352 4.0 10.0 0.03 0.03 0.03 43 1012.4
20260510015405 73 344 4.0 12.0 0.03 0.03 0.03 43 1012.5
20260510015306 73 342 4.0 12.0 0.03 0.03 0.03 43 1012.5
20260510015204 73 338 4.0 12.0 0.03 0.03 0.03 42 1012.4
20260510015104 73 344 3.0 12.0 0.03 0.03 0.03 42 1012.4
20260510015004 74 356 3.0 12.0 0.02 0.02 0.02 44 1012.5
20260510014904 74 1 3.0 12.0 0.02 0.02 0.02 43 1012.5
20260510014804 74 2 3.0 12.0 0.02 0.02 0.02 43 1012.6
20260510014604 75 347 3.0 12.0 0.02 0.02 0.02 42 1012.7
20260510014504 75 349 3.0 12.0 0.02 0.02 0.02 41 1012.8
20260510014404 75 359 4.0 8.0 0.02 0.02 0.02 39 1012.8
20260510014204 76 8 3.0 8.0 0.01 0.01 0.01 40 1012.9
20260510014004 76 354 3.0 9.0 0.01 0.01 0.01 38 1012.9
20260510013804 76 336 4.0 9.0 0.01 0.01 0.01 37 1012.9
20260510013704 77 318 4.0 10.0 0.01 0.01 0.01 38 1012.9
20260510013604 77 315 4.0 10.0 0.01 0.01 0.01 37 1012.9
20260510013504 77 317 4.0 10.0 0.00 0.00 0.00 34 1012.8
20260510013404 77 315 4.0 10.0 0.00 0.00 0.00 36 1012.8
20260510013304 78 313 5.0 13.0 0.00 0.00 0.00 38 1012.8
20260510013204 78 315 5.0 14.0 0.00 0.00 0.00 33 1012.7
20260510013104 78 317 5.0 14.0 0.00 0.00 0.00 33 1012.7
20260510013004 78 319 5.0 14.0 0.00 0.00 0.00 32 1012.6
20260510012904 78 321 5.0 14.0 0.00 0.00 0.00 32 1012.5
20260510012804 78 325 5.0 14.0 0.00 0.00 0.00 32 1012.4
20260510012704 78 334 5.0 14.0 0.00 0.00 0.00 32 1012.3
20260510012604 78 336 4.0 14.0 0.00 0.00 0.00 32 1012.2
20260510012504 78 333 4.0 14.0 0.00 0.00 0.00 31 1012.2
20260510012404 78 328 4.0 14.0 0.00 0.00 0.00 32 1012.1
20260510012306 78 327 3.0 14.0 0.00 0.00 0.00 32 1012.0
20260510012105 79 327 3.0 6.0 0.00 0.00 0.00 33 1012.0
20260510012004 79 331 3.0 6.0 0.00 0.00 0.00 35 1012.0
20260510011904 79 337 3.0 6.0 0.00 0.00 0.00 33 1012.0
20260510011605 79 335 2.0 6.0 0.00 0.00 0.00 33 1011.8
20260510011505 79 338 2.0 6.0 0.00 0.00 0.00 32 1011.8
20260510011405 79 346 1.0 6.0 0.00 0.00 0.00 33 1011.7
20260510011205 80 41 1.0 5.0 0.00 0.00 0.00 32 1011.7
20260510011105 80 90 1.0 3.0 0.00 0.00 0.00 31 1011.6
20260510011005 80 125 0.0 3.0 0.00 0.00 0.00 32 1011.6
20260510010705 80 152 0.0 1.0 0.00 0.00 0.00 30 1011.3
20260510010604 80 151 0.0 1.0 0.00 0.00 0.00 30 1011.2
20260510010504 80 150 0.0 1.0 0.00 0.00 0.00 30 1011.1
20260510010404 80 147 0.0 1.0 0.00 0.00 0.00 30 1011.1
20260510010304 80 147 0.0 1.0 0.00 0.00 0.00 29 1010.9
20260510010204 80 146 0.0 1.0 0.00 0.00 0.00 29 1010.8
20260510010004 80 163 0.0 3.0 0.00 0.00 0.00 29 1010.6
20260510005904 80 168 0.0 3.0 0.00 0.00 0.00 29 1010.6
20260510005804 80 169 0.0 3.0 0.00 0.00 0.00 29 1010.6
20260510005604 80 170 0.0 3.0 0.00 0.00 0.00 28 1010.4
20260510005504 80 167 0.0 3.0 0.00 0.00 0.00 28 1010.3
20260510005404 80 165 0.0 3.0 0.00 0.00 0.00 28 1010.3
20260510005205 80 163 0.0 3.0 0.00 0.00 0.00 27 1010.1
20260510005105 80 157 0.0 2.0 0.00 0.00 0.00 27 1010.1
20260510005005 80 158 0.0 2.0 0.00 0.00 0.00 27 1010.0
20260510004905 80 153 0.0 2.0 0.00 0.00 0.00 27 1010.0
20260510004705 80 143 0.0 2.0 0.00 0.00 0.00 27 1009.8
20260510004604 80 145 0.0 2.0 0.00 0.00 0.00 27 1009.7
20260510004504 80 145 0.0 2.0 0.00 0.00 0.00 26 1009.6
20260510004404 80 144 0.0 2.0 0.00 0.00 0.00 27 1009.6
20260510004304 80 148 0.0 2.0 0.00 0.00 0.00 27 1009.5
20260510004204 80 149 0.0 2.0 0.00 0.00 0.00 27 1009.5
20260510004104 80 151 0.0 2.0 0.00 0.00 0.00 27 1009.4
20260510004005 80 145 0.0 1.0 0.00 0.00 0.00 26 1009.4
20260510003905 81 142 0.0 1.0 0.00 0.00 0.00 27 1009.4
20260510003805 81 139 0.0 1.0 0.00 0.00 0.00 27 1009.3
20260510003705 81 138 0.0 1.0 0.00 0.00 0.00 27 1009.3
20260510003605 81 138 0.0 1.0 0.00 0.00 0.00 27 1009.2
20260510003505 81 137 0.0 1.0 0.00 0.00 0.00 27 1009.2
20260510003405 81 137 0.0 1.0 0.00 0.00 0.00 26 1009.2
20260510003205 81 136 0.0 1.0 0.00 0.00 0.00 26 1009.1
20260510003105 81 135 0.0 1.0 0.00 0.00 0.00 27 1009.1
20260510002904 81 124 0.0 2.0 0.00 0.00 0.00 26 1009.0
20260510002804 81 124 0.0 2.0 0.00 0.00 0.00 26 1008.9
20260510002704 82 124 0.0 2.0 0.00 0.00 0.00 27 1008.9
20260510002604 82 124 0.0 2.0 0.00 0.00 0.00 26 1008.9
20260510002504 82 124 0.0 2.0 0.00 0.00 0.00 26 1008.9
20260510002306 82 131 0.0 3.0 0.00 0.00 0.00 26 1008.8
20260510002204 82 131 0.0 3.0 0.00 0.00 0.00 26 1008.8
20260510002104 82 131 0.0 3.0 0.00 0.00 0.00 26 1008.8
20260510001905 82 135 0.0 3.0 0.00 0.00 0.00 26 1008.8
20260510001805 82 135 0.0 3.0 0.00 0.00 0.00 26 1008.7
20260510001705 82 136 0.0 3.0 0.00 0.00 0.00 25 1008.7
20260510001604 82 137 0.0 3.0 0.00 0.00 0.00 26 1008.8
20260510001504 83 134 0.0 3.0 0.00 0.00 0.00 25 1008.8
20260510001404 83 133 0.0 3.0 0.00 0.00 0.00 24 1008.8
20260510001304 83 130 0.0 3.0 0.00 0.00 0.00 25 1008.8
20260510001204 83 128 0.0 3.0 0.00 0.00 0.00 25 1008.8
20260510001104 83 128 1.0 3.0 0.00 0.00 0.00 25 1008.8
20260510001004 83 125 1.0 3.0 0.00 0.00 0.00 25 1008.8
20260510000904 83 125 1.0 3.0 0.00 0.00 0.00 25 1008.8
20260510000804 83 124 1.0 3.0 0.00 0.00 0.00 25 1008.8
20260510000704 83 124 1.0 3.0 0.00 0.00 0.00 24 1008.7
20260510000504 83 123 1.0 3.0 0.00 0.00 0.00 24 1008.7
20260510000404 84 121 1.0 3.0 0.00 0.00 0.00 24 1008.7
20260510000305 84 120 1.0 3.0 0.00 0.00 0.00 24 1008.7
20260510000204 84 125 1.0 3.0 0.00 0.00 0.00 24 1008.7
20260510000104 84 126 1.0 3.0 0.00 0.00 0.00 24 1008.7
20260510000004 84 132 1.0 5.0 0.00 0.00 0.00 25 1008.7
20260509235904 84 129 1.0 5.0 0.00 0.00 0.00 24 1008.7
20260509235804 84 129 1.0 5.0 0.00 0.00 0.00 24 1008.7
20260509235704 84 129 1.0 5.0 0.00 0.00 0.00 25 1008.7
20260509235604 84 130 1.0 5.0 0.00 0.00 0.00 24 1008.7
20260509235504 84 127 1.0 5.0 0.00 0.00 0.00 24 1008.7
20260509235307 85 125 1.0 5.0 0.00 0.00 0.00 23 1008.7
20260509235204 85 120 1.0 5.0 0.00 0.00 0.00 24 1008.7
20260509235004 85 118 1.0 5.0 0.00 0.00 0.00 24 1008.7
20260509234904 85 120 1.0 5.0 0.00 0.00 0.00 24 1008.7
20260509234804 85 122 1.0 5.0 0.00 0.00 0.00 24 1008.7
20260509234704 85 122 2.0 5.0 0.00 0.00 0.00 24 1008.7
20260509234604 85 123 2.0 5.0 0.00 0.00 0.00 23 1008.7
20260509234504 85 123 2.0 5.0 0.00 0.00 0.00 23 1008.7
20260509234404 85 133 2.0 6.0 0.00 0.00 0.00 23 1008.7
20260509234305 85 137 2.0 6.0 0.00 0.00 0.00 23 1008.7
20260509234205 85 140 2.0 6.0 0.00 0.00 0.00 23 1008.7
20260509234105 85 141 2.0 6.0 0.00 0.00 0.00 23 1008.7
20260509234005 85 143 2.0 6.0 0.00 0.00 0.00 22 1008.7
20260509233905 85 146 2.0 6.0 0.00 0.00 0.00 23 1008.7
20260509233805 85 156 2.0 7.0 0.00 0.00 0.00 23 1008.8
20260509233605 86 162 2.0 7.0 0.00 0.00 0.00 22 1008.8
20260509233505 86 164 2.0 7.0 0.00 0.00 0.00 25 1008.9
20260509233405 86 161 2.0 7.0 0.00 0.00 0.00 23 1008.8
20260509233305 86 156 2.0 7.0 0.00 0.00 0.00 23 1008.8
20260509233205 85 154 1.0 7.0 0.00 0.00 0.00 23 1008.9
20260509233105 85 156 2.0 7.0 0.00 0.00 0.00 23 1008.9
20260509233005 85 154 2.0 7.0 0.00 0.00 0.00 22 1008.9
20260509232905 85 154 2.0 7.0 0.00 0.00 0.00 23 1008.9
20260509232805 85 146 1.0 7.0 0.00 0.00 0.00 23 1008.9
20260509232705 85 136 1.0 7.0 0.00 0.00 0.00 22 1008.9
20260509232605 85 137 2.0 7.0 0.00 0.00 0.00 24 1009.0
20260509232204 85 157 2.0 8.0 0.00 0.00 0.00 23 1008.9
20260509232104 85 157 3.0 8.0 0.00 0.00 0.00 23 1008.9
20260509232004 86 164 3.0 8.0 0.00 0.00 0.00 23 1008.9
20260509231904 86 167 2.0 8.0 0.00 0.00 0.00 23 1009.0
20260509231804 86 169 3.0 8.0 0.00 0.00 0.00 23 1009.0
20260509231504 86 173 3.0 8.0 0.00 0.00 0.00 22 1009.0
20260509231404 86 174 3.0 8.0 0.00 0.00 0.00 23 1009.0
20260509231304 86 174 3.0 7.0 0.00 0.00 0.00 23 1009.0
20260509231204 86 177 3.0 7.0 0.00 0.00 0.00 22 1009.0
20260509231104 86 183 3.0 7.0 0.00 0.00 0.00 22 1009.1
20260509231004 86 184 3.0 7.0 0.00 0.00 0.00 24 1009.1
20260509230904 86 184 3.0 7.0 0.00 0.00 0.00 22 1009.1
20260509230804 86 185 3.0 7.0 0.00 0.00 0.00 22 1009.1
20260509230704 86 184 3.0 7.0 0.00 0.00 0.00 23 1009.1
20260509230604 86 186 3.0 7.0 0.00 0.00 0.00 23 1009.1
20260509230504 86 185 3.0 7.0 0.00 0.00 0.00 23 1009.2
20260509230404 86 185 3.0 7.0 0.00 0.00 0.00 23 1009.2
20260509230304 86 184 3.0 7.0 0.00 0.00 0.00 22 1009.2
20260509230204 86 183 3.0 7.0 0.00 0.00 0.00 22 1009.1
20260509230005 86 174 2.0 6.0 0.00 0.00 0.00 22 1009.1
20260509225905 86 174 2.0 6.0 0.00 0.00 0.00 22 1009.1
20260509225804 86 172 2.0 6.0 0.00 0.00 0.00 23 1009.0
20260509225705 86 172 2.0 6.0 0.00 0.00 0.00 22 1009.1
20260509225605 87 172 2.0 6.0 0.00 0.00 0.00 22 1009.1
20260509225505 87 177 2.0 7.0 0.00 0.00 0.00 22 1009.0
20260509225306 87 168 2.0 7.0 0.00 0.00 0.00 23 1009.0
20260509225205 86 167 2.0 7.0 0.00 0.00 0.00 23 1009.0
20260509225105 86 164 2.0 7.0 0.00 0.00 0.00 22 1009.0
20260509225005 86 161 2.0 7.0 0.00 0.00 0.00 23 1009.0
20260509224905 86 157 3.0 7.0 0.00 0.00 0.00 23 1009.0
20260509224805 86 154 3.0 7.0 0.00 0.00 0.00 21 1009.0
20260509224705 86 150 3.0 7.0 0.00 0.00 0.00 22 1009.0
20260509224504 87 133 2.0 6.0 0.00 0.00 0.00 23 1008.9
20260509224404 87 131 2.0 6.0 0.00 0.00 0.00 21 1009.0
20260509224304 87 128 2.0 5.0 0.00 0.00 0.00 22 1008.9
20260509224204 87 127 2.0 5.0 0.00 0.00 0.00 22 1008.9
20260509224104 87 128 2.0 5.0 0.00 0.00 0.00 22 1008.9
20260509224004 87 130 2.0 5.0 0.00 0.00 0.00 22 1008.9
20260509223904 87 127 1.0 5.0 0.00 0.00 0.00 21 1008.9
20260509223804 87 128 1.0 5.0 0.00 0.00 0.00 21 1008.9
20260509223704 87 127 1.0 5.0 0.00 0.00 0.00 22 1008.9
20260509223604 87 136 2.0 5.0 0.00 0.00 0.00 22 1008.9
20260509223404 87 153 2.0 7.0 0.00 0.00 0.00 22 1008.9
20260509223304 87 155 2.0 7.0 0.00 0.00 0.00 22 1008.9
20260509223204 87 159 2.0 7.0 0.00 0.00 0.00 22 1008.9
20260509223104 86 160 3.0 7.0 0.00 0.00 0.00 21 1008.9
20260509223004 86 161 3.0 7.0 0.00 0.00 0.00 21 1008.9
20260509222904 86 164 3.0 7.0 0.00 0.00 0.00 23 1008.9
20260509222704 87 173 3.0 8.0 0.00 0.00 0.00 22 1008.9
20260509222604 87 172 3.0 8.0 0.00 0.00 0.00 21 1009.0
20260509222504 87 171 3.0 8.0 0.00 0.00 0.00 23 1008.9
20260509222404 87 171 3.0 8.0 0.00 0.00 0.00 22 1008.9
20260509222307 86 172 3.0 8.0 0.00 0.00 0.00 22 1008.9
20260509222204 86 173 3.0 8.0 0.00 0.00 0.00 21 1008.9
20260509222104 86 174 3.0 8.0 0.00 0.00 0.00 22 1008.8
20260509221804 87 186 3.0 6.0 0.00 0.00 0.00 22 1008.8
20260509221704 87 191 3.0 9.0 0.00 0.00 0.00 22 1008.8
20260509221604 87 193 3.0 9.0 0.00 0.00 0.00 22 1008.9
20260509221504 87 195 3.0 9.0 0.00 0.00 0.00 23 1008.9
20260509221404 87 196 3.0 9.0 0.00 0.00 0.00 23 1008.9
20260509221304 86 192 3.0 9.0 0.00 0.00 0.00 21 1008.9
20260509221205 86 190 3.0 9.0 0.00 0.00 0.00 22 1008.8
20260509221005 87 191 3.0 9.0 0.00 0.00 0.00 22 1008.8
20260509220905 87 191 2.0 9.0 0.00 0.00 0.00 22 1008.8
20260509220805 87 178 2.0 9.0 0.00 0.00 0.00 21 1008.9
20260509220705 87 165 2.0 6.0 0.00 0.00 0.00 21 1008.8
20260509220605 87 162 2.0 6.0 0.00 0.00 0.00 21 1008.9
20260509220505 87 166 2.0 7.0 0.00 0.00 0.00 21 1008.9
20260509220405 87 167 2.0 7.0 0.00 0.00 0.00 22 1008.8
20260509220305 87 172 2.0 7.0 0.00 0.00 0.00 23 1008.9
20260509220205 87 173 2.0 7.0 0.00 0.00 0.00 23 1008.8
20260509220105 87 177 2.0 7.0 0.00 0.00 0.00 23 1008.8
20260509220005 87 175 2.0 7.0 0.00 0.00 0.00 22 1008.8
20260509215805 88 175 2.0 7.0 0.00 0.00 0.00 23 1008.8
20260509215705 88 179 2.0 7.0 0.00 0.00 0.00 22 1008.8
20260509215605 88 176 1.0 7.0 0.00 0.00 0.00 21 1008.7
20260509215505 88 164 1.0 4.0 0.00 0.00 0.00 23 1008.8
20260509215404 88 162 2.0 4.0 0.00 0.00 0.00 23 1008.8
20260509215306 88 157 2.0 4.0 0.00 0.00 0.00 23 1008.8
20260509215204 88 166 2.0 8.0 0.00 0.00 0.00 24 1008.8
20260509215104 87 168 2.0 8.0 0.00 0.00 0.00 22 1008.8
20260509215004 87 164 2.0 8.0 0.00 0.00 0.00 22 1008.7
20260509214804 87 167 2.0 8.0 0.00 0.00 0.00 21 1008.8
20260509214704 87 169 3.0 8.0 0.00 0.00 0.00 22 1008.7
20260509214604 87 177 3.0 8.0 0.00 0.00 0.00 21 1008.7
20260509214404 87 183 3.0 8.0 0.00 0.00 0.00 22 1008.7
20260509214304 87 184 3.0 9.0 0.00 0.00 0.00 21 1008.7
20260509214204 87 181 3.0 9.0 0.00 0.00 0.00 23 1008.8
20260509214104 87 175 3.0 9.0 0.00 0.00 0.00 21 1008.8
20260509214004 87 174 3.0 9.0 0.00 0.00 0.00 20 1008.8
20260509213904 87 173 3.0 9.0 0.00 0.00 0.00 21 1008.8
20260509213804 87 168 2.0 9.0 0.00 0.00 0.00 20 1008.8
20260509213704 88 166 2.0 9.0 0.00 0.00 0.00 21 1008.8
20260509213604 88 157 2.0 9.0 0.00 0.00 0.00 22 1008.8
20260509213504 88 137 2.0 9.0 0.00 0.00 0.00 23 1008.8
20260509213404 88 148 2.0 9.0 0.00 0.00 0.00 22 1008.8
20260509213304 88 164 2.0 7.0 0.00 0.00 0.00 22 1008.7
20260509213104 87 168 2.0 7.0 0.00 0.00 0.00 23 1008.8
20260509213004 87 173 2.0 7.0 0.00 0.00 0.00 22 1008.8
20260509212904 87 172 2.0 7.0 0.00 0.00 0.00 22 1008.8
20260509212804 87 171 3.0 7.0 0.00 0.00 0.00 22 1008.8
20260509212704 87 171 3.0 7.0 0.00 0.00 0.00 22 1008.8
20260509212504 87 177 3.0 8.0 0.00 0.00 0.00 20 1008.8
20260509212404 87 182 3.0 12.0 0.00 0.00 0.00 21 1008.9
20260509212306 87 174 3.0 12.0 0.00 0.00 0.00 22 1008.9
20260509212205 87 170 3.0 12.0 0.00 0.00 0.00 21 1008.9
20260509212104 87 173 3.0 12.0 0.00 0.00 0.00 21 1009.0
20260509212005 87 171 3.0 12.0 0.00 0.00 0.00 23 1009.0
20260509211904 87 179 3.0 12.0 0.00 0.00 0.00 22 1009.0
20260509211804 87 182 2.0 12.0 0.00 0.00 0.00 22 1009.0
20260509211704 87 181 2.0 12.0 0.00 0.00 0.00 21 1009.1
20260509211604 88 179 2.0 12.0 0.00 0.00 0.00 22 1009.1
20260509211505 88 179 2.0 12.0 0.00 0.00 0.00 21 1009.1
20260509211404 88 164 2.0 6.0 0.00 0.00 0.00 23 1009.2
20260509211204 88 179 2.0 7.0 0.00 0.00 0.00 23 1009.1
20260509211104 87 179 2.0 7.0 0.00 0.00 0.00 23 1009.2
20260509211005 87 179 2.0 7.0 0.00 0.00 0.00 22 1009.2
20260509210905 87 173 2.0 7.0 0.00 0.00 0.00 23 1009.2
20260509210804 87 173 3.0 7.0 0.00 0.00 0.00 23 1009.2
20260509210704 87 175 3.0 8.0 0.00 0.00 0.00 22 1009.2
20260509210504 87 170 3.0 8.0 0.00 0.00 0.00 23 1009.2
20260509210404 87 172 3.0 8.0 0.00 0.00 0.00 22 1009.3
20260509210304 88 168 3.0 8.0 0.00 0.00 0.00 24 1009.4
20260509210204 87 158 3.0 8.0 0.00 0.00 0.00 22 1009.3
20260509210004 87 153 3.0 8.0 0.00 0.00 0.00 23 1009.3
20260509205904 87 153 3.0 8.0 0.00 0.00 0.00 24 1009.4
20260509205805 87 152 2.0 8.0 0.00 0.00 0.00 23 1009.3
20260509205704 87 146 3.0 8.0 0.00 0.00 0.00 23 1009.3
20260509205604 87 155 3.0 8.0 0.00 0.00 0.00 23 1009.4
20260509205505 87 161 3.0 8.0 0.00 0.00 0.00 22 1009.3
20260509205405 87 156 3.0 8.0 0.00 0.00 0.00 22 1009.4
20260509205307 87 152 3.0 8.0 0.00 0.00 0.00 21 1009.4
20260509205205 87 154 3.0 8.0 0.00 0.00 0.00 23 1009.4
20260509205105 87 151 3.0 8.0 0.00 0.00 0.00 22 1009.3
20260509205005 87 150 3.0 8.0 0.00 0.00 0.00 23 1009.4
20260509204905 87 148 3.0 8.0 0.00 0.00 0.00 21 1009.3
20260509204805 87 149 3.0 8.0 0.00 0.00 0.00 20 1009.4
20260509204605 87 147 3.0 7.0 0.00 0.00 0.00 22 1009.4
20260509204404 87 160 4.0 10.0 0.00 0.00 0.00 21 1009.4
20260509204304 87 166 4.0 13.0 0.00 0.00 0.00 22 1009.4
20260509204104 87 173 4.0 13.0 0.00 0.00 0.00 22 1009.5
20260509204004 87 175 4.0 13.0 0.00 0.00 0.00 24 1009.5
20260509203904 87 174 3.0 13.0 0.00 0.00 0.00 24 1009.5
20260509203804 87 172 3.0 13.0 0.00 0.00 0.00 23 1009.5
20260509203704 87 170 3.0 13.0 0.00 0.00 0.00 22 1009.4
20260509203604 87 173 3.0 13.0 0.00 0.00 0.00 21 1009.5
20260509203504 87 169 2.0 13.0 0.00 0.00 0.00 23 1009.5
20260509203404 88 161 2.0 13.0 0.00 0.00 0.00 22 1009.4
20260509203304 88 159 2.0 7.0 0.00 0.00 0.00 23 1009.5
20260509203204 88 155 2.0 5.0 0.00 0.00 0.00 23 1009.5
20260509203104 88 153 2.0 5.0 0.00 0.00 0.00 21 1009.4
20260509203004 88 150 2.0 5.0 0.00 0.00 0.00 21 1009.5
20260509202905 88 151 2.0 5.0 0.00 0.00 0.00 21 1009.5
20260509202804 88 160 2.0 6.0 0.00 0.00 0.00 24 1009.6
20260509202704 88 176 2.0 13.0 0.00 0.00 0.00 21 1009.6
20260509202605 88 177 3.0 13.0 0.00 0.00 0.00 23 1009.6
20260509202505 88 175 3.0 13.0 0.00 0.00 0.00 21 1009.5
20260509202405 88 177 2.0 13.0 0.00 0.00 0.00 21 1009.6
20260509202306 88 174 2.0 13.0 0.00 0.00 0.00 22 1009.6
20260509202204 88 173 3.0 13.0 0.00 0.00 0.00 21 1009.6
20260509202004 88 178 2.0 13.0 0.00 0.00 0.00 22 1009.7
20260509201904 88 184 2.0 13.0 0.00 0.00 0.00 21 1009.6
20260509201804 88 183 2.0 13.0 0.00 0.00 0.00 21 1009.6
20260509201704 89 181 2.0 8.0 0.00 0.00 0.00 20 1009.6
20260509201604 89 176 2.0 5.0 0.00 0.00 0.00 23 1009.7
20260509201505 89 177 2.0 5.0 0.00 0.00 0.00 22 1009.6
20260509201405 88 174 2.0 5.0 0.00 0.00 0.00 22 1009.7
20260509201305 88 176 2.0 5.0 0.00 0.00 0.00 22 1009.6
20260509201204 88 176 2.0 5.0 0.00 0.00 0.00 23 1009.7
20260509201104 88 174 2.0 5.0 0.00 0.00 0.00 22 1009.7
20260509201004 88 169 2.0 5.0 0.00 0.00 0.00 22 1009.7
20260509200904 88 165 2.0 5.0 0.00 0.00 0.00 22 1009.7
20260509200804 88 166 2.0 5.0 0.00 0.00 0.00 24 1009.7
20260509200704 88 173 2.0 6.0 0.00 0.00 0.00 22 1009.7
20260509200604 88 174 2.0 7.0 0.00 0.00 0.00 23 1009.8
20260509200504 88 172 2.0 7.0 0.00 0.00 0.00 21 1009.8
20260509200304 87 176 2.0 7.0 0.00 0.00 0.00 23 1009.8
20260509200204 87 174 2.0 7.0 0.00 0.00 0.00 22 1009.8
20260509200104 87 176 3.0 7.0 0.00 0.00 0.00 21 1009.9
20260509200004 87 179 3.0 7.0 0.00 0.00 0.00 20 1009.8
20260509195904 87 183 3.0 7.0 0.00 0.00 0.00 21 1009.8
20260509195704 87 187 2.0 7.0 0.00 0.00 0.00 21 1009.8
20260509195604 87 199 2.0 5.0 0.00 0.00 0.00 23 1009.8
20260509195404 87 219 3.0 5.0 0.00 0.00 0.00 23 1009.8
20260509195306 87 217 3.0 5.0 0.00 0.00 0.00 23 1009.8
20260509195204 87 228 2.0 5.0 0.00 0.00 0.00 22 1009.9
20260509195105 87 235 2.0 5.0 0.00 0.00 0.00 22 1009.9
20260509194904 87 244 2.0 5.0 0.00 0.00 0.00 22 1009.9
20260509194804 87 233 2.0 5.0 0.00 0.00 0.00 21 1010.0
20260509194704 87 225 2.0 5.0 0.00 0.00 0.00 24 1010.0
20260509194604 87 207 2.0 6.0 0.00 0.00 0.00 23 1010.0
20260509194504 87 197 2.0 6.0 0.00 0.00 0.00 24 1010.1
20260509194404 87 186 2.0 6.0 0.00 0.00 0.00 24 1010.1
20260509194304 87 182 2.0 7.0 0.00 0.00 0.00 23 1010.1
20260509194104 87 167 2.0 7.0 0.00 0.00 0.00 24 1010.1
20260509193904 86 164 2.0 7.0 0.00 0.00 0.00 24 1010.2
20260509193704 86 175 2.0 7.0 0.00 0.00 0.00 23 1010.1
20260509193604 86 177 2.0 7.0 0.00 0.00 0.00 22 1010.1
20260509193504 86 173 2.0 7.0 0.00 0.00 0.00 23 1010.2
20260509193404 86 181 2.0 7.0 0.00 0.00 0.00 22 1010.2
20260509193304 86 186 2.0 5.0 0.00 0.00 0.00 23 1010.2
20260509193205 86 193 2.0 5.0 0.00 0.00 0.00 25 1010.2
20260509193105 86 197 2.0 5.0 0.00 0.00 0.00 23 1010.2
20260509193004 86 201 2.0 5.0 0.00 0.00 0.00 22 1010.2
20260509192904 86 202 3.0 5.0 0.00 0.00 0.00 24 1010.2
20260509192804 86 206 3.0 5.0 0.00 0.00 0.00 21 1010.2
20260509192705 86 215 3.0 6.0 0.00 0.00 0.00 21 1010.2
20260509192605 86 218 3.0 6.0 0.00 0.00 0.00 23 1010.2
20260509192505 86 217 3.0 8.0 0.00 0.00 0.00 22 1010.2
20260509192405 86 217 3.0 8.0 0.00 0.00 0.00 24 1010.2
20260509192306 86 214 3.0 8.0 0.00 0.00 0.00 24 1010.3
20260509192205 86 207 3.0 8.0 0.00 0.00 0.00 23 1010.2
20260509192104 86 201 3.0 8.0 0.00 0.00 0.00 23 1010.3
20260509192004 86 187 3.0 8.0 0.00 0.00 0.00 24 1010.3
20260509191904 86 178 3.0 8.0 0.00 0.00 0.00 23 1010.3
20260509191804 86 166 2.0 8.0 0.00 0.00 0.00 25 1010.3
20260509191704 86 152 2.0 8.0 0.00 0.00 0.00 24 1010.3
20260509191504 86 148 2.0 8.0 0.00 0.00 0.00 25 1010.3
20260509191304 86 159 2.0 8.0 0.00 0.00 0.00 23 1010.3
20260509191104 86 166 2.0 8.0 0.00 0.00 0.00 24 1010.3
20260509191005 86 172 2.0 8.0 0.00 0.00 0.00 24 1010.3
20260509190704 86 190 3.0 8.0 0.00 0.00 0.00 24 1010.3
20260509190404 86 216 2.0 5.0 0.00 0.00 0.00 24 1010.4
20260509190304 86 229 2.0 5.0 0.00 0.00 0.00 24 1010.3
20260509190204 86 244 3.0 5.0 0.00 0.00 0.00 25 1010.4
20260509185905 86 255 3.0 8.0 0.00 0.00 0.00 25 1010.3
20260509185804 86 246 3.0 8.0 0.00 0.00 0.00 25 1010.3
20260509185705 86 236 3.0 8.0 0.00 0.00 0.00 26 1010.3
20260509185504 86 219 3.0 8.0 0.00 0.00 0.00 27 1010.3
20260509185404 86 205 3.0 8.0 0.00 0.00 0.00 25 1010.4
20260509185306 86 190 3.0 8.0 0.00 0.00 0.00 25 1010.4
20260509185204 86 181 3.0 8.0 0.00 0.00 0.00 26 1010.4
20260509185104 86 182 3.0 8.0 0.00 0.00 0.00 25 1010.5
20260509185004 86 182 3.0 8.0 0.00 0.00 0.00 26 1010.5
20260509184804 86 196 3.0 14.0 0.00 0.00 0.00 26 1010.5
20260509184704 86 197 3.0 14.0 0.00 0.00 0.00 27 1010.5
20260509184604 85 197 4.0 14.0 0.00 0.00 0.00 26 1010.5
20260509184504 85 199 4.0 14.0 0.00 0.00 0.00 26 1010.5
20260509184304 85 200 3.0 14.0 0.00 0.00 0.00 24 1010.5
20260509184104 85 206 3.0 14.0 0.00 0.00 0.00 25 1010.6
20260509184004 85 203 3.0 14.0 0.00 0.00 0.00 25 1010.6
20260509183904 86 199 2.0 14.0 0.00 0.00 0.00 24 1010.4
20260509183804 86 192 2.0 5.0 0.00 0.00 0.00 25 1010.5
20260509183704 86 188 2.0 5.0 0.00 0.00 0.00 24 1010.6
20260509183504 86 207 2.0 5.0 0.00 0.00 0.00 23 1010.5
20260509183204 86 210 2.0 5.0 0.00 0.00 0.00 24 1010.7
20260509183105 86 210 2.0 5.0 0.00 0.00 0.00 27 1010.7
20260509183005 86 213 2.0 5.0 0.00 0.00 0.00 25 1010.8
20260509182905 86 218 2.0 5.0 0.00 0.00 0.00 27 1010.7
20260509182805 86 219 2.0 5.0 0.00 0.00 0.00 26 1010.8
20260509182705 86 224 2.0 5.0 0.00 0.00 0.00 23 1010.7
20260509182604 86 218 2.0 5.0 0.00 0.00 0.00 25 1010.9
20260509182404 85 220 2.0 5.0 0.00 0.00 0.00 24 1010.8
20260509182306 85 229 2.0 5.0 0.00 0.00 0.00 25 1010.9
20260509182204 86 232 2.0 5.0 0.00 0.00 0.00 25 1010.9
20260509182104 86 226 2.0 8.0 0.00 0.00 0.00 27 1010.9
20260509182004 85 232 3.0 8.0 0.00 0.00 0.00 25 1010.9
20260509181904 85 234 3.0 8.0 0.00 0.00 0.00 28 1010.9
20260509181804 85 234 3.0 8.0 0.00 0.00 0.00 27 1010.9
20260509181704 85 228 3.0 8.0 0.00 0.00 0.00 26 1011.0
20260509181604 85 223 3.0 8.0 0.00 0.00 0.00 25 1010.9
20260509181504 84 216 3.0 8.0 0.00 0.00 0.00 25 1010.9
20260509181304 84 205 3.0 8.0 0.00 0.00 0.00 25 1011.0
20260509181104 85 203 3.0 9.0 0.00 0.00 0.00 25 1011.0
20260509181004 85 199 3.0 9.0 0.00 0.00 0.00 25 1011.0
20260509180904 85 194 3.0 9.0 0.00 0.00 0.00 25 1011.0
20260509180804 85 193 3.0 9.0 0.00 0.00 0.00 26 1011.1
20260509180704 85 191 3.0 9.0 0.00 0.00 0.00 26 1011.0
20260509180604 85 194 3.0 9.0 0.00 0.00 0.00 26 1011.1
20260509180504 85 195 3.0 9.0 0.00 0.00 0.00 27 1011.1
20260509180404 84 196 3.0 9.0 0.00 0.00 0.00 26 1011.1